Time,TemperatureF,DewpointF,PressureIn,WindDirection,WindDirectionDegrees,WindSpeedMPH,WindSpeedGustMPH,Humidity,HourlyPrecipIn,Conditions,Clouds,dailyrainin,SoftwareType,DateUTC
2013-04-24 00:01:00,67.3,53.4,29.78,South,176,10.0,11.0,61,0.00,,,0.00,Wunderground v.1.15,2013-04-24 04:01:00,
2013-04-24 00:03:00,66.9,53.9,29.78,South,184,9.0,11.0,63,0.00,,,0.00,Wunderground v.1.15,2013-04-24 04:03:00,
2013-04-24 00:04:00,66.6,54.0,29.78,SSW,213,9.0,11.0,64,0.00,,,0.00,Wunderground v.1.15,2013-04-24 04:04:00,
2013-04-24 00:05:00,66.5,53.9,29.78,SW,219,9.0,11.0,64,0.00,,,0.00,Wunderground v.1.15,2013-04-24 04:05:00,
2013-04-24 00:06:00,66.3,54.2,29.78,SSE,164,9.0,11.0,65,0.00,,,0.00,Wunderground v.1.15,2013-04-24 04:06:00,
2013-04-24 00:09:00,66.3,53.8,29.78,SW,229,8.0,12.0,64,0.00,,,0.00,Wunderground v.1.15,2013-04-24 04:09:00,
2013-04-24 00:11:00,66.3,53.8,29.78,WSW,247,9.0,20.0,64,0.00,,,0.00,Wunderground v.1.15,2013-04-24 04:11:00,
2013-04-24 00:13:00,66.5,53.9,29.78,SW,217,11.0,20.0,64,0.00,,,0.00,Wunderground v.1.15,2013-04-24 04:13:00,
2013-04-24 00:14:00,66.3,54.2,29.78,SW,215,10.0,20.0,65,0.00,,,0.00,Wunderground v.1.15,2013-04-24 04:14:00,
2013-04-24 00:16:00,66.3,54.2,29.79,South,169,10.0,20.0,65,0.00,,,0.00,Wunderground v.1.15,2013-04-24 04:16:00,
2013-04-24 00:17:00,66.3,54.2,29.79,SSW,198,10.0,20.0,65,0.00,,,0.00,Wunderground v.1.15,2013-04-24 04:17:00,
2013-04-24 00:19:00,66.1,54.0,29.79,SSW,198,9.0,20.0,65,0.00,,,0.00,Wunderground v.1.15,2013-04-24 04:19:00,
2013-04-24 00:21:00,66.3,54.2,29.79,West,260,8.0,9.0,65,0.00,,,0.00,Wunderground v.1.15,2013-04-24 04:21:00,
2013-04-24 00:22:00,66.3,54.2,29.79,SW,229,7.0,16.0,65,0.00,,,0.00,Wunderground v.1.15,2013-04-24 04:22:00,
2013-04-24 00:24:00,66.3,53.8,29.79,SW,219,8.0,16.0,64,0.00,,,0.00,Wunderground v.1.15,2013-04-24 04:24:00,
2013-04-24 00:25:00,66.5,53.9,29.79,WSW,241,8.0,16.0,64,0.00,,,0.00,Wunderground v.1.15,2013-04-24 04:25:00,
2013-04-24 00:28:00,66.5,53.9,29.79,WNW,291,8.0,16.0,64,0.00,,,0.00,Wunderground v.1.15,2013-04-24 04:28:00,
2013-04-24 00:29:00,66.5,53.9,29.79,WSW,248,8.0,16.0,64,0.00,,,0.00,Wunderground v.1.15,2013-04-24 04:29:00,
2013-04-24 00:30:00,66.6,54.0,29.81,WNW,292,7.0,11.0,64,0.00,,,0.00,Wunderground v.1.15,2013-04-24 04:30:00,
2013-04-24 00:33:00,66.5,54.8,29.81,West,278,7.0,16.0,66,0.00,,,0.00,Wunderground v.1.15,2013-04-24 04:33:00,
2013-04-24 00:34:00,66.5,55.2,29.81,West,271,7.0,16.0,67,0.00,,,0.00,Wunderground v.1.15,2013-04-24 04:34:00,
2013-04-24 00:36:00,66.1,55.6,29.81,WNW,301,8.0,16.0,69,0.00,,,0.00,Wunderground v.1.15,2013-04-24 04:36:00,
2013-04-24 00:37:00,66.0,55.9,29.81,WSW,257,8.0,16.0,70,0.00,,,0.00,Wunderground v.1.15,2013-04-24 04:37:00,
2013-04-24 00:39:00,65.7,56.0,29.81,NW,318,8.0,16.0,71,0.00,,,0.00,Wunderground v.1.15,2013-04-24 04:39:00,
2013-04-24 00:41:00,65.2,55.9,29.81,West,267,8.0,12.0,72,0.00,,,0.00,Wunderground v.1.15,2013-04-24 04:41:00,
2013-04-24 00:42:00,65.0,56.1,29.81,WNW,289,8.0,12.0,73,0.00,,,0.00,Wunderground v.1.15,2013-04-24 04:42:00,
2013-04-24 00:44:00,64.7,55.8,29.81,West,272,8.0,12.0,73,0.00,,,0.00,Wunderground v.1.15,2013-04-24 04:44:00,
2013-04-24 00:46:00,64.4,55.9,29.82,WNW,287,7.0,12.0,74,0.00,,,0.00,Wunderground v.1.15,2013-04-24 04:46:00,
2013-04-24 00:47:00,64.2,56.1,29.82,WNW,299,7.0,12.0,75,0.00,,,0.00,Wunderground v.1.15,2013-04-24 04:47:00,
2013-04-24 00:48:00,64.2,56.1,29.82,West,267,6.0,12.0,75,0.00,,,0.00,Wunderground v.1.15,2013-04-24 04:48:00,
2013-04-24 00:49:00,64.0,56.3,29.82,NW,313,7.0,12.0,76,0.00,,,0.00,Wunderground v.1.15,2013-04-24 04:49:00,
2013-04-24 00:51:00,63.7,56.0,29.82,NW,323,6.0,6.0,76,0.00,,,0.00,Wunderground v.1.15,2013-04-24 04:51:00,
2013-04-24 00:52:00,63.7,56.0,29.82,NW,322,6.0,6.0,76,0.00,,,0.00,Wunderground v.1.15,2013-04-24 04:52:00,
2013-04-24 00:54:00,63.4,56.1,29.82,NW,323,6.0,6.0,77,0.00,,,0.00,Wunderground v.1.15,2013-04-24 04:54:00,
2013-04-24 00:56:00,63.2,55.9,29.82,NW,306,5.0,6.0,77,0.00,,,0.00,Wunderground v.1.15,2013-04-24 04:56:00,
2013-04-24 00:57:00,63.1,56.1,29.82,WSW,247,5.0,6.0,78,0.00,,,0.00,Wunderground v.1.15,2013-04-24 04:57:00,
2013-04-24 01:02:00,62.6,55.6,29.82,NW,322,4.0,5.0,78,0.00,,,0.00,Wunderground v.1.15,2013-04-24 05:02:00,
2013-04-24 01:03:00,62.5,55.9,29.82,NW,322,4.0,5.0,79,0.00,,,0.00,Wunderground v.1.15,2013-04-24 05:03:00,
2013-04-24 01:04:00,62.5,55.9,29.82,West,272,4.0,6.0,79,0.00,,,0.00,Wunderground v.1.15,2013-04-24 05:04:00,
2013-04-24 01:07:00,62.3,55.7,29.82,WNW,301,4.0,6.0,79,0.00,,,0.00,Wunderground v.1.15,2013-04-24 05:07:00,
2013-04-24 01:08:00,62.1,55.5,29.82,NW,304,3.0,6.0,79,0.00,,,0.00,Wunderground v.1.15,2013-04-24 05:08:00,
2013-04-24 01:09:00,62.1,55.9,29.82,NNW,332,3.0,6.0,80,0.00,,,0.00,Wunderground v.1.15,2013-04-24 05:09:00,
2013-04-24 01:12:00,62.0,55.8,29.82,WSW,241,2.0,3.0,80,0.00,,,0.00,Wunderground v.1.15,2013-04-24 05:12:00,
2013-04-24 01:14:00,61.8,55.6,29.82,WNW,285,2.0,3.0,80,0.00,,,0.00,Wunderground v.1.15,2013-04-24 05:14:00,
2013-04-24 01:16:00,61.8,55.9,29.83,NW,325,2.0,3.0,81,0.00,,,0.00,Wunderground v.1.15,2013-04-24 05:16:00,
2013-04-24 01:17:00,61.7,55.8,29.83,NW,315,1.0,3.0,81,0.00,,,0.00,Wunderground v.1.15,2013-04-24 05:17:00,
2013-04-24 01:19:00,61.7,55.8,29.83,NW,316,1.0,3.0,81,0.00,,,0.00,Wunderground v.1.15,2013-04-24 05:19:00,
2013-04-24 01:20:00,61.7,55.8,29.83,NW,316,1.0,1.0,81,0.00,,,0.00,Wunderground v.1.15,2013-04-24 05:20:00,
2013-04-24 01:21:00,61.5,55.6,29.83,NW,316,1.0,1.0,81,0.00,,,0.00,Wunderground v.1.15,2013-04-24 05:21:00,
2013-04-24 01:22:00,61.5,55.6,29.83,NW,316,0.0,1.0,81,0.00,,,0.00,Wunderground v.1.15,2013-04-24 05:22:00,
2013-04-24 01:24:00,61.4,55.5,29.83,WNW,301,0.0,1.0,81,0.00,,,0.00,Wunderground v.1.15,2013-04-24 05:24:00,
2013-04-24 01:29:00,61.2,55.3,29.83,NW,313,0.0,5.0,81,0.00,,,0.00,Wunderground v.1.15,2013-04-24 05:29:00,
2013-04-24 01:31:00,61.0,55.1,29.82,WNW,299,0.0,0.0,81,0.00,,,0.00,Wunderground v.1.15,2013-04-24 05:31:00,
2013-04-24 01:33:00,61.0,55.1,29.82,NNW,328,1.0,1.0,81,0.00,,,0.00,Wunderground v.1.15,2013-04-24 05:33:00,
2013-04-24 01:34:00,61.0,55.1,29.82,NNW,328,1.0,1.0,81,0.00,,,0.00,Wunderground v.1.15,2013-04-24 05:34:00,
2013-04-24 01:36:00,60.9,55.0,29.82,NNW,328,1.0,1.0,81,0.00,,,0.00,Wunderground v.1.15,2013-04-24 05:36:00,
2013-04-24 01:39:00,60.7,54.8,29.82,NW,326,0.0,1.0,81,0.00,,,0.00,Wunderground v.1.15,2013-04-24 05:39:00,
2013-04-24 01:40:00,60.7,54.8,29.82,NW,326,0.0,0.0,81,0.00,,,0.00,Wunderground v.1.15,2013-04-24 05:40:00,
2013-04-24 01:42:00,60.7,54.8,29.82,WNW,288,0.0,3.0,81,0.00,,,0.00,Wunderground v.1.15,2013-04-24 05:42:00,
2013-04-24 01:43:00,60.6,54.7,29.82,WNW,298,0.0,3.0,81,0.00,,,0.00,Wunderground v.1.15,2013-04-24 05:43:00,
2013-04-24 01:44:00,60.6,54.7,29.82,WNW,301,0.0,3.0,81,0.00,,,0.00,Wunderground v.1.15,2013-04-24 05:44:00,
2013-04-24 01:47:00,60.4,54.9,29.82,WNW,295,0.0,3.0,82,0.00,,,0.00,Wunderground v.1.15,2013-04-24 05:47:00,
2013-04-24 01:48:00,60.4,54.9,29.82,WNW,295,0.0,3.0,82,0.00,,,0.00,Wunderground v.1.15,2013-04-24 05:48:00,
2013-04-24 01:50:00,60.4,54.9,29.82,WNW,299,0.0,0.0,82,0.00,,,0.00,Wunderground v.1.15,2013-04-24 05:50:00,
2013-04-24 01:51:00,60.4,54.9,29.82,NW,315,0.0,3.0,82,0.00,,,0.00,Wunderground v.1.15,2013-04-24 05:51:00,
2013-04-24 01:54:00,60.3,55.1,29.82,WNW,289,1.0,5.0,83,0.00,,,0.00,Wunderground v.1.15,2013-04-24 05:54:00,
2013-04-24 01:56:00,60.1,54.9,29.82,WNW,295,1.0,5.0,83,0.00,,,0.00,Wunderground v.1.15,2013-04-24 05:56:00,
2013-04-24 01:58:00,60.1,55.2,29.82,WNW,295,1.0,5.0,84,0.00,,,0.00,Wunderground v.1.15,2013-04-24 05:58:00,
2013-04-24 01:59:00,60.1,55.2,29.82,WNW,295,1.0,5.0,84,0.00,,,0.00,Wunderground v.1.15,2013-04-24 05:59:00,
2013-04-24 02:00:00,60.0,55.2,29.82,WNW,295,1.0,1.0,84,0.00,,,0.00,Wunderground v.1.15,2013-04-24 06:00:00,
2013-04-24 02:04:00,59.8,55.0,29.82,WNW,298,1.0,8.0,84,0.00,,,0.00,Wunderground v.1.15,2013-04-24 06:04:00,
2013-04-24 02:06:00,59.7,54.9,29.82,NW,308,2.0,8.0,84,0.00,,,0.01,Wunderground v.1.15,2013-04-24 06:06:00,
2013-04-24 02:09:00,59.5,54.7,29.82,West,268,3.0,8.0,84,0.00,,,0.01,Wunderground v.1.15,2013-04-24 06:09:00,
2013-04-24 02:10:00,59.4,54.6,29.82,WNW,289,3.0,3.0,84,0.00,,,0.01,Wunderground v.1.15,2013-04-24 06:10:00,
2013-04-24 02:11:00,59.4,54.6,29.82,WNW,287,3.0,3.0,84,0.00,,,0.01,Wunderground v.1.15,2013-04-24 06:11:00,
2013-04-24 02:14:00,59.1,54.3,29.82,WNW,295,3.0,6.0,84,0.00,,,0.01,Wunderground v.1.15,2013-04-24 06:14:00,
2013-04-24 02:15:00,59.1,54.3,29.82,WNW,292,3.0,6.0,84,0.00,,,0.01,Wunderground v.1.15,2013-04-24 06:15:00,
2013-04-24 02:17:00,58.9,54.1,29.82,WNW,289,3.0,6.0,84,0.00,,,0.01,Wunderground v.1.15,2013-04-24 06:17:00,
2013-04-24 02:20:00,58.6,54.1,29.82,West,274,2.0,2.0,85,0.00,,,0.01,Wunderground v.1.15,2013-04-24 06:20:00,
2013-04-24 02:21:00,58.6,54.1,29.82,WNW,295,3.0,3.0,85,0.00,,,0.01,Wunderground v.1.15,2013-04-24 06:21:00,
2013-04-24 02:23:00,58.5,54.0,29.82,WNW,289,3.0,3.0,85,0.00,,,0.01,Wunderground v.1.15,2013-04-24 06:23:00,
2013-04-24 02:25:00,58.3,53.8,29.82,NW,315,3.0,4.0,85,0.00,,,0.01,Wunderground v.1.15,2013-04-24 06:25:00,
2013-04-24 02:26:00,58.1,53.6,29.82,West,281,3.0,4.0,85,0.00,,,0.01,Wunderground v.1.15,2013-04-24 06:26:00,
2013-04-24 02:28:00,58.1,53.6,29.82,WNW,301,3.0,5.0,85,0.00,,,0.01,Wunderground v.1.15,2013-04-24 06:28:00,
2013-04-24 02:32:00,58.0,53.8,29.82,West,277,3.0,3.0,86,0.00,,,0.01,Wunderground v.1.15,2013-04-24 06:32:00,
2013-04-24 02:33:00,57.8,53.6,29.82,WNW,289,3.0,3.0,86,0.00,,,0.01,Wunderground v.1.15,2013-04-24 06:33:00,
2013-04-24 02:34:00,57.8,53.6,29.82,WNW,289,2.0,3.0,86,0.00,,,0.01,Wunderground v.1.15,2013-04-24 06:34:00,
2013-04-24 02:35:00,57.8,53.6,29.82,WNW,288,2.0,3.0,86,0.00,,,0.01,Wunderground v.1.15,2013-04-24 06:35:00,
2013-04-24 02:37:00,57.7,53.5,29.82,WNW,289,2.0,3.0,86,0.00,,,0.01,Wunderground v.1.15,2013-04-24 06:37:00,
2013-04-24 02:38:00,57.7,53.5,29.82,WNW,289,1.0,3.0,86,0.00,,,0.01,Wunderground v.1.15,2013-04-24 06:38:00,
2013-04-24 02:40:00,57.7,53.5,29.82,WNW,289,1.0,1.0,86,0.00,,,0.01,Wunderground v.1.15,2013-04-24 06:40:00,
2013-04-24 02:42:00,57.5,53.3,29.82,WNW,298,0.0,1.0,86,0.00,,,0.01,Wunderground v.1.15,2013-04-24 06:42:00,
2013-04-24 02:43:00,57.5,53.3,29.82,WNW,299,0.0,1.0,86,0.00,,,0.01,Wunderground v.1.15,2013-04-24 06:43:00,
2013-04-24 02:46:00,57.5,53.7,29.80,WNW,299,0.0,1.0,87,0.00,,,0.01,Wunderground v.1.15,2013-04-24 06:46:00,
2013-04-24 02:47:00,57.5,53.7,29.80,WNW,299,0.0,1.0,87,0.00,,,0.01,Wunderground v.1.15,2013-04-24 06:47:00,
2013-04-24 02:49:00,57.4,53.6,29.80,WNW,299,0.0,1.0,87,0.00,,,0.01,Wunderground v.1.15,2013-04-24 06:49:00,
2013-04-24 02:52:00,57.4,53.6,29.80,NW,304,0.0,1.0,87,0.00,,,0.01,Wunderground v.1.15,2013-04-24 06:52:00,
2013-04-24 02:54:00,57.4,53.6,29.80,WNW,287,0.0,4.0,87,0.00,,,0.01,Wunderground v.1.15,2013-04-24 06:54:00,
2013-04-24 02:55:00,57.4,53.6,29.80,WNW,284,1.0,4.0,87,0.00,,,0.01,Wunderground v.1.15,2013-04-24 06:55:00,
2013-04-24 02:56:00,57.4,53.9,29.80,WNW,302,1.0,4.0,88,0.00,,,0.01,Wunderground v.1.15,2013-04-24 06:56:00,
2013-04-24 02:57:00,57.4,53.9,29.80,NW,305,1.0,4.0,88,0.00,,,0.01,Wunderground v.1.15,2013-04-24 06:57:00,
2013-04-24 02:58:00,57.2,53.7,29.80,WNW,287,1.0,4.0,88,0.00,,,0.01,Wunderground v.1.15,2013-04-24 06:58:00,
2013-04-24 03:00:00,57.2,53.7,29.83,WSW,258,2.0,4.0,88,0.00,,,0.02,Wunderground v.1.15,2013-04-24 07:00:00,
2013-04-24 03:02:00,57.2,53.7,29.83,NW,315,3.0,4.0,88,0.00,,,0.02,Wunderground v.1.15,2013-04-24 07:02:00,
2013-04-24 03:06:00,57.0,53.5,29.83,WSW,251,5.0,10.0,88,0.19,,,0.03,Wunderground v.1.15,2013-04-24 07:06:00,
2013-04-24 03:07:00,56.8,53.3,29.83,West,280,6.0,10.0,88,0.14,,,0.03,Wunderground v.1.15,2013-04-24 07:07:00,
2013-04-24 03:08:00,56.7,53.2,29.83,West,270,6.0,10.0,88,0.12,,,0.04,Wunderground v.1.15,2013-04-24 07:08:00,
2013-04-24 03:12:00,56.4,52.9,29.83,WNW,289,6.0,17.0,88,0.12,,,0.04,Wunderground v.1.15,2013-04-24 07:12:00,
2013-04-24 03:14:00,56.2,52.7,29.83,NW,316,6.0,17.0,88,0.10,,,0.04,Wunderground v.1.15,2013-04-24 07:14:00,
2013-04-24 03:15:00,56.1,52.6,29.83,WNW,302,6.0,17.0,88,0.09,,,0.04,Wunderground v.1.15,2013-04-24 07:15:00,
2013-04-24 09:19:00,41.4,39.3,29.90,North,0,6.0,6.0,92,0.32,,,0.51,Wunderground v.1.15,2013-04-24 13:19:00,
2013-04-24 09:21:00,41.4,39.3,29.90,North,353,5.0,6.0,92,0.19,,,0.51,Wunderground v.1.15,2013-04-24 13:21:00,
2013-04-24 09:22:00,41.4,39.3,29.90,NNW,340,5.0,8.0,92,0.19,,,0.52,Wunderground v.1.15,2013-04-24 13:22:00,
2013-04-24 09:23:00,41.3,39.2,29.90,NW,316,5.0,8.0,92,0.19,,,0.52,Wunderground v.1.15,2013-04-24 13:23:00,
2013-04-24 09:25:00,41.3,39.2,29.90,WNW,285,5.0,8.0,92,0.23,,,0.53,Wunderground v.1.15,2013-04-24 13:25:00,
2013-04-24 09:28:00,41.3,39.2,29.90,NW,304,2.0,8.0,92,0.14,,,0.53,Wunderground v.1.15,2013-04-24 13:28:00,
2013-04-24 09:29:00,41.3,39.2,29.90,NW,318,2.0,5.0,92,0.11,,,0.53,Wunderground v.1.15,2013-04-24 13:29:00,
2013-04-24 09:31:00,41.3,39.2,29.92,NW,320,2.0,5.0,92,0.08,,,0.53,Wunderground v.1.15,2013-04-24 13:31:00,
2013-04-24 09:32:00,41.3,39.2,29.92,NNW,336,3.0,5.0,92,0.07,,,0.53,Wunderground v.1.15,2013-04-24 13:32:00,
2013-04-24 09:33:00,41.3,39.2,29.92,NW,311,2.0,6.0,92,0.06,,,0.53,Wunderground v.1.15,2013-04-24 13:33:00,
2013-04-24 09:36:00,41.1,39.0,29.92,NNW,330,3.0,7.0,92,0.06,,,0.54,Wunderground v.1.15,2013-04-24 13:36:00,
2013-04-24 09:38:00,41.1,39.0,29.92,NW,312,4.0,7.0,92,0.06,,,0.54,Wunderground v.1.15,2013-04-24 13:38:00,
2013-04-24 09:41:00,41.1,39.0,29.92,WNW,284,4.0,5.0,92,0.06,,,0.54,Wunderground v.1.15,2013-04-24 13:41:00,
2013-04-24 09:42:00,41.1,39.0,29.92,NW,308,4.0,5.0,92,0.06,,,0.54,Wunderground v.1.15,2013-04-24 13:42:00,
2013-04-24 09:43:00,41.1,39.0,29.92,NW,309,4.0,6.0,92,0.06,,,0.54,Wunderground v.1.15,2013-04-24 13:43:00,
2013-04-24 09:44:00,41.1,39.0,29.92,WNW,298,4.0,6.0,92,0.06,,,0.54,Wunderground v.1.15,2013-04-24 13:44:00,
2013-04-24 09:47:00,41.3,39.2,29.94,NW,315,3.0,6.0,92,0.05,,,0.54,Wunderground v.1.15,2013-04-24 13:47:00,
2013-04-24 09:48:00,41.3,39.2,29.94,NW,306,3.0,7.0,92,0.04,,,0.54,Wunderground v.1.15,2013-04-24 13:48:00,
2013-04-24 09:50:00,41.1,39.0,29.94,NNW,344,4.0,8.0,92,0.04,,,0.55,Wunderground v.1.15,2013-04-24 13:50:00,
2013-04-24 09:52:00,41.1,39.0,29.94,NNW,333,4.0,8.0,92,0.04,,,0.55,Wunderground v.1.15,2013-04-24 13:52:00,
2013-04-24 09:55:00,41.1,39.0,29.94,North,0,5.0,8.0,92,0.04,,,0.55,Wunderground v.1.15,2013-04-24 13:55:00,
2013-04-24 09:56:00,41.1,39.0,29.94,NW,319,5.0,8.0,92,0.04,,,0.55,Wunderground v.1.15,2013-04-24 13:56:00,
2013-04-24 09:58:00,41.1,39.0,29.94,NNW,335,4.0,8.0,92,0.04,,,0.55,Wunderground v.1.15,2013-04-24 13:58:00,
2013-04-24 10:00:00,41.1,39.0,29.89,North,0,3.0,6.0,92,0.04,,,0.55,Wunderground v.1.15,2013-04-24 14:00:00,
2013-04-24 10:01:00,41.1,39.0,29.89,NW,325,3.0,6.0,92,0.04,,,0.55,Wunderground v.1.15,2013-04-24 14:01:00,
2013-04-24 10:03:00,41.1,39.0,29.89,NW,315,3.0,10.0,92,0.04,,,0.55,Wunderground v.1.15,2013-04-24 14:03:00,
2013-04-24 10:06:00,41.0,38.9,29.89,NW,322,4.0,10.0,92,0.00,,,0.55,Wunderground v.1.15,2013-04-24 14:06:00,
2013-04-24 10:09:00,41.0,38.9,29.89,NW,319,5.0,10.0,92,0.00,,,0.55,Wunderground v.1.15,2013-04-24 14:09:00,
2013-04-24 10:11:00,41.1,39.0,29.89,NNW,336,5.0,6.0,92,0.00,,,0.55,Wunderground v.1.15,2013-04-24 14:11:00,
2013-04-24 10:14:00,41.1,39.0,29.89,NW,306,6.0,10.0,92,0.00,,,0.55,Wunderground v.1.15,2013-04-24 14:14:00,
2013-04-24 10:15:00,41.1,39.0,29.92,NW,320,6.0,10.0,92,0.00,,,0.55,Wunderground v.1.15,2013-04-24 14:15:00,
2013-04-24 10:16:00,41.1,39.0,29.92,NW,309,6.0,10.0,92,0.00,,,0.55,Wunderground v.1.15,2013-04-24 14:16:00,
2013-04-24 10:18:00,41.0,38.9,29.92,WNW,292,7.0,10.0,92,0.00,,,0.55,Wunderground v.1.15,2013-04-24 14:18:00,
2013-04-24 10:20:00,41.0,38.6,29.92,NNW,346,7.0,8.0,91,0.00,,,0.55,Wunderground v.1.15,2013-04-24 14:20:00,
2013-04-24 10:22:00,41.0,38.6,29.92,NW,323,8.0,8.0,91,0.00,,,0.55,Wunderground v.1.15,2013-04-24 14:22:00,
2013-04-24 10:23:00,41.0,38.6,29.92,WNW,289,7.0,8.0,91,0.00,,,0.55,Wunderground v.1.15,2013-04-24 14:23:00,
2013-04-24 10:24:00,41.0,38.6,29.92,NW,308,7.0,8.0,91,0.00,,,0.55,Wunderground v.1.15,2013-04-24 14:24:00,
2013-04-24 10:27:00,41.0,38.6,29.92,NNW,328,7.0,11.0,91,0.00,,,0.55,Wunderground v.1.15,2013-04-24 14:27:00,
2013-04-24 10:28:00,41.0,38.6,29.92,NNW,335,7.0,11.0,91,0.00,,,0.55,Wunderground v.1.15,2013-04-24 14:28:00,
2013-04-24 10:29:00,41.0,38.6,29.92,NW,322,7.0,11.0,91,0.00,,,0.55,Wunderground v.1.15,2013-04-24 14:29:00,
2013-04-24 10:33:00,41.0,38.6,29.94,NNW,335,7.0,11.0,91,0.00,,,0.55,Wunderground v.1.15,2013-04-24 14:33:00,
2013-04-24 10:34:00,41.0,38.6,29.94,North,352,6.0,11.0,91,0.00,,,0.55,Wunderground v.1.15,2013-04-24 14:34:00,
2013-04-24 10:35:00,41.0,38.6,29.94,NW,309,6.0,11.0,91,0.00,,,0.55,Wunderground v.1.15,2013-04-24 14:35:00,
2013-04-24 10:37:00,41.1,38.7,29.94,NW,318,6.0,11.0,91,0.00,,,0.55,Wunderground v.1.15,2013-04-24 14:37:00,
2013-04-24 10:41:00,41.0,38.6,29.94,WNW,284,6.0,11.0,91,0.00,,,0.55,Wunderground v.1.15,2013-04-24 14:41:00,
2013-04-24 10:43:00,41.0,38.6,29.94,NW,325,7.0,11.0,91,0.00,,,0.55,Wunderground v.1.15,2013-04-24 14:43:00,
2013-04-24 10:44:00,41.0,38.6,29.94,NW,315,7.0,11.0,91,0.00,,,0.55,Wunderground v.1.15,2013-04-24 14:44:00,
2013-04-24 10:46:00,41.0,38.6,29.96,NNW,329,7.0,11.0,91,0.00,,,0.55,Wunderground v.1.15,2013-04-24 14:46:00,
2013-04-24 10:48:00,41.0,38.6,29.96,NW,312,7.0,11.0,91,0.00,,,0.55,Wunderground v.1.15,2013-04-24 14:48:00,
2013-04-24 10:50:00,41.0,38.6,29.96,NNW,335,7.0,13.0,91,0.00,,,0.55,Wunderground v.1.15,2013-04-24 14:50:00,
2013-04-24 10:51:00,41.0,38.3,29.96,NW,313,7.0,13.0,90,0.00,,,0.55,Wunderground v.1.15,2013-04-24 14:51:00,
2013-04-24 10:55:00,41.0,38.3,29.96,NW,311,7.0,13.0,90,0.00,,,0.55,Wunderground v.1.15,2013-04-24 14:55:00,
2013-04-24 10:56:00,41.0,38.3,29.96,NNW,340,8.0,13.0,90,0.00,,,0.55,Wunderground v.1.15,2013-04-24 14:56:00,
2013-04-24 10:57:00,41.0,38.3,29.96,North,353,7.0,13.0,90,0.00,,,0.55,Wunderground v.1.15,2013-04-24 14:57:00,
2013-04-24 10:59:00,41.0,38.3,29.96,NW,319,8.0,13.0,90,0.00,,,0.55,Wunderground v.1.15,2013-04-24 14:59:00,
2013-04-24 11:01:00,41.1,38.7,29.98,NNW,342,7.0,7.0,91,0.00,,,0.55,Wunderground v.1.15,2013-04-24 15:01:00,
2013-04-24 11:02:00,41.1,38.4,29.98,NNW,333,7.0,15.0,90,0.00,,,0.55,Wunderground v.1.15,2013-04-24 15:02:00,
2013-04-24 11:03:00,41.0,38.3,29.98,North,0,8.0,15.0,90,0.00,,,0.55,Wunderground v.1.15,2013-04-24 15:03:00,
2013-04-24 11:05:00,40.8,38.1,29.98,NW,308,8.0,19.0,90,0.00,,,0.55,Wunderground v.1.15,2013-04-24 15:05:00,
2013-04-24 11:10:00,40.7,38.0,29.98,NNW,346,9.0,9.0,90,0.00,,,0.55,Wunderground v.1.15,2013-04-24 15:10:00,
2013-04-24 11:11:00,40.7,38.0,29.98,North,354,8.0,12.0,90,0.00,,,0.55,Wunderground v.1.15,2013-04-24 15:11:00,
2013-04-24 11:12:00,40.7,38.0,29.98,NW,311,8.0,12.0,90,0.00,,,0.55,Wunderground v.1.15,2013-04-24 15:12:00,
2013-04-24 11:15:00,40.6,37.9,29.99,NW,319,7.0,12.0,90,0.00,,,0.55,Wunderground v.1.15,2013-04-24 15:15:00,
2013-04-24 11:17:00,40.6,37.6,29.99,NNW,330,6.0,12.0,89,0.00,,,0.55,Wunderground v.1.15,2013-04-24 15:17:00,
2013-04-24 11:18:00,40.6,37.6,29.99,NW,319,6.0,12.0,89,0.00,,,0.55,Wunderground v.1.15,2013-04-24 15:18:00,
2013-04-24 11:19:00,40.6,37.6,29.99,NW,318,6.0,12.0,89,0.00,,,0.55,Wunderground v.1.15,2013-04-24 15:19:00,
2013-04-24 11:22:00,40.6,37.6,29.99,NW,320,7.0,10.0,89,0.00,,,0.55,Wunderground v.1.15,2013-04-24 15:22:00,
2013-04-24 11:23:00,40.6,37.6,29.99,NW,325,7.0,10.0,89,0.00,,,0.55,Wunderground v.1.15,2013-04-24 15:23:00,
2013-04-24 11:25:00,40.6,37.6,29.99,West,265,7.0,10.0,89,0.00,,,0.55,Wunderground v.1.15,2013-04-24 15:25:00,
2013-04-24 11:26:00,40.4,37.4,29.99,NW,306,7.0,10.0,89,0.00,,,0.55,Wunderground v.1.15,2013-04-24 15:26:00,
2013-04-24 11:29:00,40.3,37.3,29.99,WNW,294,8.0,14.0,89,0.00,,,0.55,Wunderground v.1.15,2013-04-24 15:29:00,
2013-04-24 11:31:00,40.3,37.3,30.02,NW,320,8.0,8.0,89,0.00,,,0.55,Wunderground v.1.15,2013-04-24 15:31:00,
2013-04-24 11:33:00,40.3,37.3,30.02,NNW,336,8.0,19.0,89,0.00,,,0.55,Wunderground v.1.15,2013-04-24 15:33:00,
2013-04-24 11:34:00,40.1,37.1,30.02,NW,322,9.0,19.0,89,0.00,,,0.55,Wunderground v.1.15,2013-04-24 15:34:00,
2013-04-24 11:35:00,40.1,37.1,30.02,NNW,339,9.0,19.0,89,0.00,,,0.55,Wunderground v.1.15,2013-04-24 15:35:00,
2013-04-24 11:38:00,40.1,37.1,30.02,NW,316,8.0,19.0,89,0.00,,,0.55,Wunderground v.1.15,2013-04-24 15:38:00,
2013-04-24 11:40:00,40.3,37.3,30.02,WNW,294,6.0,7.0,89,0.00,,,0.55,Wunderground v.1.15,2013-04-24 15:40:00,
2013-04-24 11:41:00,40.1,37.1,30.02,NNW,337,7.0,10.0,89,0.00,,,0.55,Wunderground v.1.15,2013-04-24 15:41:00,
2013-04-24 11:42:00,40.1,37.1,30.02,NW,316,7.0,10.0,89,0.00,,,0.55,Wunderground v.1.15,2013-04-24 15:42:00,
2013-04-24 11:44:00,40.1,37.1,30.02,WNW,294,5.0,10.0,89,0.00,,,0.55,Wunderground v.1.15,2013-04-24 15:44:00,
2013-04-24 11:47:00,40.1,37.1,30.02,WNW,298,6.0,10.0,89,0.00,,,0.55,Wunderground v.1.15,2013-04-24 15:47:00,
2013-04-24 11:49:00,40.1,37.1,30.02,NW,315,6.0,10.0,89,0.00,,,0.55,Wunderground v.1.15,2013-04-24 15:49:00,
2013-04-24 11:50:00,40.1,37.1,30.02,NNW,330,6.0,6.0,89,0.00,,,0.55,Wunderground v.1.15,2013-04-24 15:50:00,
2013-04-24 11:51:00,40.1,37.4,30.02,NNW,330,6.0,6.0,90,0.00,,,0.55,Wunderground v.1.15,2013-04-24 15:51:00,
2013-04-24 11:52:00,40.1,37.4,30.02,NNW,344,5.0,9.0,90,0.00,,,0.55,Wunderground v.1.15,2013-04-24 15:52:00,
2013-04-24 11:54:00,40.3,37.3,30.02,NNW,336,6.0,11.0,89,0.00,,,0.55,Wunderground v.1.15,2013-04-24 15:54:00,
2013-04-24 11:55:00,40.3,37.3,30.02,NW,319,6.0,11.0,89,0.00,,,0.55,Wunderground v.1.15,2013-04-24 15:55:00,
2013-04-24 11:57:00,40.4,37.4,30.02,NW,308,6.0,11.0,89,0.00,,,0.55,Wunderground v.1.15,2013-04-24 15:57:00,
2013-04-24 11:59:00,40.6,37.6,30.02,NW,316,6.0,11.0,89,0.00,,,0.55,Wunderground v.1.15,2013-04-24 15:59:00,
2013-04-24 12:00:00,40.7,37.7,30.03,NNW,343,6.0,8.0,89,0.00,,,0.55,Wunderground v.1.15,2013-04-24 16:00:00,
2013-04-24 12:01:00,40.7,37.7,30.03,NNW,332,6.0,8.0,89,0.00,,,0.55,Wunderground v.1.15,2013-04-24 16:01:00,
2013-04-24 12:04:00,41.0,38.0,30.03,WNW,292,5.0,8.0,89,0.00,,,0.55,Wunderground v.1.15,2013-04-24 16:04:00,
2013-04-24 12:06:00,41.3,38.0,30.03,WNW,299,5.0,8.0,88,0.00,,,0.55,Wunderground v.1.15,2013-04-24 16:06:00,
2013-04-24 12:08:00,41.4,38.1,30.03,NW,315,6.0,12.0,88,0.00,,,0.55,Wunderground v.1.15,2013-04-24 16:08:00,
2013-04-24 12:09:00,41.4,37.8,30.03,NW,323,6.0,12.0,87,0.00,,,0.55,Wunderground v.1.15,2013-04-24 16:09:00,
2013-04-24 12:11:00,41.4,37.5,30.03,WNW,292,7.0,8.0,86,0.00,,,0.55,Wunderground v.1.15,2013-04-24 16:11:00,
2013-04-24 12:13:00,41.6,37.7,30.03,West,270,7.0,8.0,86,0.00,,,0.55,Wunderground v.1.15,2013-04-24 16:13:00,
2013-04-24 12:16:00,41.8,37.9,30.04,WNW,285,8.0,8.0,86,0.00,,,0.55,Wunderground v.1.15,2013-04-24 16:16:00,
2013-04-24 12:17:00,41.8,37.6,30.04,NNW,343,8.0,8.0,85,0.00,,,0.55,Wunderground v.1.15,2013-04-24 16:17:00,
2013-04-24 12:19:00,42.0,37.8,30.04,NW,320,7.0,8.0,85,0.00,,,0.55,Wunderground v.1.15,2013-04-24 16:19:00,
2013-04-24 12:20:00,42.1,37.9,30.04,North,349,6.0,6.0,85,0.00,,,0.55,Wunderground v.1.15,2013-04-24 16:20:00,
2013-04-24 12:21:00,42.3,38.1,30.04,NNW,330,5.0,14.0,85,0.00,,,0.55,Wunderground v.1.15,2013-04-24 16:21:00,
2013-04-24 12:22:00,42.3,37.8,30.04,NW,309,6.0,14.0,84,0.00,,,0.55,Wunderground v.1.15,2013-04-24 16:22:00,
2013-04-24 12:25:00,42.4,37.6,30.04,WNW,296,6.0,16.0,83,0.00,,,0.55,Wunderground v.1.15,2013-04-24 16:25:00,
2013-04-24 12:26:00,42.4,37.6,30.04,NW,318,6.0,16.0,83,0.00,,,0.55,Wunderground v.1.15,2013-04-24 16:26:00,
2013-04-24 12:29:00,42.6,37.2,30.04,NW,312,7.0,16.0,81,0.00,,,0.55,Wunderground v.1.15,2013-04-24 16:29:00,
2013-04-24 12:30:00,42.6,37.2,30.05,NW,306,7.0,7.0,81,0.00,,,0.55,Wunderground v.1.15,2013-04-24 16:30:00,
2013-04-24 12:32:00,42.6,37.2,30.05,WNW,292,7.0,7.0,81,0.00,,,0.55,Wunderground v.1.15,2013-04-24 16:32:00,
2013-04-24 12:34:00,42.7,37.6,30.05,North,350,6.0,7.0,82,0.00,,,0.55,Wunderground v.1.15,2013-04-24 16:34:00,
2013-04-24 12:37:00,42.8,37.7,30.05,North,356,4.0,7.0,82,0.00,,,0.55,Wunderground v.1.15,2013-04-24 16:37:00,
2013-04-24 12:40:00,43.1,37.7,30.05,WNW,282,4.0,7.0,81,0.00,,,0.55,Wunderground v.1.15,2013-04-24 16:40:00,
2013-04-24 12:41:00,43.1,37.7,30.05,West,268,4.0,7.0,81,0.00,,,0.55,Wunderground v.1.15,2013-04-24 16:41:00,
2013-04-24 12:42:00,43.1,37.7,30.05,WSW,237,4.0,7.0,81,0.00,,,0.55,Wunderground v.1.15,2013-04-24 16:42:00,
2013-04-24 12:43:00,43.1,37.7,30.05,NW,304,4.0,7.0,81,0.00,,,0.55,Wunderground v.1.15,2013-04-24 16:43:00,
2013-04-24 12:44:00,43.1,37.3,30.05,NW,316,4.0,7.0,80,0.00,,,0.55,Wunderground v.1.15,2013-04-24 16:44:00,
2013-04-24 12:46:00,43.3,37.9,30.05,NNW,333,5.0,7.0,81,0.00,,,0.55,Wunderground v.1.15,2013-04-24 16:46:00,
2013-04-24 12:47:00,43.3,37.9,30.05,NW,319,5.0,7.0,81,0.00,,,0.55,Wunderground v.1.15,2013-04-24 16:47:00,
2013-04-24 12:49:00,43.3,37.9,30.05,NW,326,4.0,7.0,81,0.00,,,0.55,Wunderground v.1.15,2013-04-24 16:49:00,
2013-04-24 12:50:00,43.3,37.5,30.05,North,350,4.0,8.0,80,0.00,,,0.55,Wunderground v.1.15,2013-04-24 16:50:00,
2013-04-24 12:51:00,43.3,37.5,30.05,NNW,328,5.0,8.0,80,0.00,,,0.55,Wunderground v.1.15,2013-04-24 16:51:00,
2013-04-24 12:55:00,43.6,37.8,30.05,WNW,282,5.0,8.0,80,0.00,,,0.55,Wunderground v.1.15,2013-04-24 16:55:00,
2013-04-24 12:57:00,43.7,37.6,30.05,WNW,291,5.0,10.0,79,0.00,,,0.55,Wunderground v.1.15,2013-04-24 16:57:00,
2013-04-24 12:58:00,43.8,38.0,30.05,WNW,301,5.0,10.0,80,0.00,,,0.55,Wunderground v.1.15,2013-04-24 16:58:00,
2013-04-24 13:00:00,44.1,38.3,30.06,West,280,5.0,10.0,80,0.00,,,0.55,Wunderground v.1.15,2013-04-24 17:00:00,
2013-04-24 13:01:00,44.1,38.0,30.06,WNW,292,4.0,11.0,79,0.00,,,0.55,Wunderground v.1.15,2013-04-24 17:01:00,
2013-04-24 13:03:00,44.1,38.0,30.06,WNW,287,5.0,11.0,79,0.00,,,0.55,Wunderground v.1.15,2013-04-24 17:03:00,
2013-04-24 13:05:00,44.1,37.3,30.06,WNW,289,5.0,11.0,77,0.00,,,0.55,Wunderground v.1.15,2013-04-24 17:05:00,
2013-04-24 13:08:00,44.1,37.3,30.06,NNW,339,6.0,11.0,77,0.00,,,0.55,Wunderground v.1.15,2013-04-24 17:08:00,
2013-04-24 13:10:00,44.3,37.9,30.06,NW,326,6.0,7.0,78,0.00,,,0.55,Wunderground v.1.15,2013-04-24 17:10:00,
2013-04-24 13:11:00,44.3,37.9,30.06,NW,320,6.0,11.0,78,0.00,,,0.55,Wunderground v.1.15,2013-04-24 17:11:00,
2013-04-24 13:13:00,44.3,37.5,30.06,NNW,347,6.0,11.0,77,0.00,,,0.55,Wunderground v.1.15,2013-04-24 17:13:00,
2013-04-24 13:16:00,44.3,37.5,30.08,WNW,295,5.0,14.0,77,0.00,,,0.55,Wunderground v.1.15,2013-04-24 17:16:00,
2013-04-24 13:17:00,44.3,37.5,30.08,WNW,295,6.0,14.0,77,0.00,,,0.55,Wunderground v.1.15,2013-04-24 17:17:00,
2013-04-24 13:22:00,44.3,37.5,30.08,WNW,285,5.0,10.0,77,0.00,,,0.55,Wunderground v.1.15,2013-04-24 17:22:00,
2013-04-24 13:23:00,44.3,37.5,30.08,WNW,289,5.0,10.0,77,0.00,,,0.55,Wunderground v.1.15,2013-04-24 17:23:00,
2013-04-24 13:24:00,44.3,37.9,30.08,North,0,5.0,10.0,78,0.00,,,0.55,Wunderground v.1.15,2013-04-24 17:24:00,
2013-04-24 13:25:00,44.3,37.9,30.08,NW,320,5.0,10.0,78,0.00,,,0.55,Wunderground v.1.15,2013-04-24 17:25:00,
2013-04-24 13:27:00,44.3,37.9,30.08,WNW,301,5.0,10.0,78,0.00,,,0.55,Wunderground v.1.15,2013-04-24 17:27:00,
2013-04-24 13:29:00,44.1,37.7,30.08,NW,315,5.0,10.0,78,0.00,,,0.55,Wunderground v.1.15,2013-04-24 17:29:00,
2013-04-24 13:31:00,44.1,37.3,30.08,NW,309,5.0,8.0,77,0.00,,,0.55,Wunderground v.1.15,2013-04-24 17:31:00,
2013-04-24 13:32:00,44.1,37.7,30.08,WNW,288,5.0,8.0,78,0.00,,,0.55,Wunderground v.1.15,2013-04-24 17:32:00,
2013-04-24 13:33:00,44.1,37.3,30.08,North,0,5.0,8.0,77,0.00,,,0.55,Wunderground v.1.15,2013-04-24 17:33:00,
2013-04-24 13:35:00,44.0,37.6,30.08,WNW,292,6.0,8.0,78,0.00,,,0.55,Wunderground v.1.15,2013-04-24 17:35:00,
2013-04-24 13:39:00,43.8,37.4,30.08,North,349,6.0,8.0,78,0.00,,,0.55,Wunderground v.1.15,2013-04-24 17:39:00,
2013-04-24 13:40:00,43.8,37.4,30.08,WNW,295,6.0,6.0,78,0.00,,,0.55,Wunderground v.1.15,2013-04-24 17:40:00,
2013-04-24 13:45:00,44.0,37.9,30.09,WNW,301,5.0,14.0,79,0.00,,,0.55,Wunderground v.1.15,2013-04-24 17:45:00,
2013-04-24 13:46:00,44.0,37.6,30.09,WSW,250,5.0,14.0,78,0.00,,,0.55,Wunderground v.1.15,2013-04-24 17:46:00,
2013-04-24 13:51:00,44.0,37.6,30.09,WNW,294,5.0,8.0,78,0.00,,,0.55,Wunderground v.1.15,2013-04-24 17:51:00,
2013-04-24 13:52:00,43.8,37.4,30.09,WNW,299,5.0,8.0,78,0.00,,,0.55,Wunderground v.1.15,2013-04-24 17:52:00,
2013-04-24 13:54:00,43.8,37.4,30.09,WNW,295,5.0,8.0,78,0.00,,,0.55,Wunderground v.1.15,2013-04-24 17:54:00,
2013-04-24 13:58:00,43.7,37.3,30.09,NW,313,6.0,11.0,78,0.00,,,0.55,Wunderground v.1.15,2013-04-24 17:58:00,
2013-04-24 13:59:00,43.8,37.4,30.09,NNW,330,6.0,11.0,78,0.00,,,0.55,Wunderground v.1.15,2013-04-24 17:59:00,
2013-04-24 14:00:00,43.8,37.4,30.09,NNW,335,6.0,6.0,78,0.00,,,0.55,Wunderground v.1.15,2013-04-24 18:00:00,
2013-04-24 14:02:00,43.8,37.7,30.09,WNW,285,6.0,6.0,79,0.00,,,0.55,Wunderground v.1.15,2013-04-24 18:02:00,
2013-04-24 14:05:00,44.0,37.6,30.09,WNW,296,5.0,12.0,78,0.00,,,0.55,Wunderground v.1.15,2013-04-24 18:05:00,
2013-04-24 14:08:00,44.0,37.3,30.09,NW,311,5.0,12.0,77,0.00,,,0.55,Wunderground v.1.15,2013-04-24 18:08:00,
2013-04-24 14:09:00,44.0,37.3,30.09,WNW,294,5.0,12.0,77,0.00,,,0.55,Wunderground v.1.15,2013-04-24 18:09:00,
2013-04-24 14:13:00,43.8,37.1,30.09,WNW,282,6.0,11.0,77,0.00,,,0.55,Wunderground v.1.15,2013-04-24 18:13:00,
2013-04-24 14:14:00,43.8,37.4,30.09,NW,326,6.0,11.0,78,0.00,,,0.55,Wunderground v.1.15,2013-04-24 18:14:00,
2013-04-24 14:15:00,43.8,37.4,30.10,WNW,302,6.0,11.0,78,0.00,,,0.55,Wunderground v.1.15,2013-04-24 18:15:00,
2013-04-24 14:17:00,43.8,37.4,30.10,NW,316,5.0,11.0,78,0.00,,,0.55,Wunderground v.1.15,2013-04-24 18:17:00,
2013-04-24 14:18:00,43.8,37.4,30.10,NNW,328,5.0,11.0,78,0.00,,,0.55,Wunderground v.1.15,2013-04-24 18:18:00,
2013-04-24 14:20:00,43.8,37.7,30.10,WNW,302,4.0,4.0,79,0.00,,,0.55,Wunderground v.1.15,2013-04-24 18:20:00,
2013-04-24 14:22:00,43.8,37.7,30.10,NW,320,4.0,5.0,79,0.00,,,0.55,Wunderground v.1.15,2013-04-24 18:22:00,
2013-04-24 14:24:00,43.8,37.7,30.10,West,277,4.0,6.0,79,0.00,,,0.55,Wunderground v.1.15,2013-04-24 18:24:00,
2013-04-24 14:25:00,43.8,37.7,30.10,NW,316,4.0,9.0,79,0.00,,,0.55,Wunderground v.1.15,2013-04-24 18:25:00,
2013-04-24 14:26:00,43.8,37.7,30.10,WNW,301,4.0,9.0,79,0.00,,,0.55,Wunderground v.1.15,2013-04-24 18:26:00,
2013-04-24 14:29:00,43.8,37.4,30.10,NW,311,5.0,9.0,78,0.00,,,0.55,Wunderground v.1.15,2013-04-24 18:29:00,
2013-04-24 14:32:00,43.8,37.4,30.10,West,280,5.0,10.0,78,0.00,,,0.55,Wunderground v.1.15,2013-04-24 18:32:00,
2013-04-24 14:33:00,43.8,37.4,30.10,NW,313,5.0,10.0,78,0.00,,,0.55,Wunderground v.1.15,2013-04-24 18:33:00,
2013-04-24 14:34:00,43.8,37.4,30.10,WNW,295,5.0,10.0,78,0.00,,,0.55,Wunderground v.1.15,2013-04-24 18:34:00,
2013-04-24 14:37:00,44.0,37.3,30.10,WNW,298,5.0,10.0,77,0.00,,,0.55,Wunderground v.1.15,2013-04-24 18:37:00,
2013-04-24 14:40:00,44.1,37.3,30.10,NW,319,6.0,6.0,77,0.00,,,0.55,Wunderground v.1.15,2013-04-24 18:40:00,
2013-04-24 14:42:00,44.1,37.3,30.10,NW,313,6.0,6.0,77,0.00,,,0.55,Wunderground v.1.15,2013-04-24 18:42:00,
2013-04-24 14:43:00,44.3,37.5,30.10,WNW,296,6.0,6.0,77,0.00,,,0.55,Wunderground v.1.15,2013-04-24 18:43:00,
2013-04-24 14:45:00,44.4,37.3,30.10,NW,322,6.0,13.0,76,0.00,,,0.55,Wunderground v.1.15,2013-04-24 18:45:00,
2013-04-24 14:46:00,44.4,37.3,30.10,WNW,291,7.0,13.0,76,0.00,,,0.55,Wunderground v.1.15,2013-04-24 18:46:00,
2013-04-24 14:48:00,44.4,37.3,30.10,WNW,288,6.0,13.0,76,0.00,,,0.55,Wunderground v.1.15,2013-04-24 18:48:00,
2013-04-24 14:49:00,44.4,37.3,30.10,WSW,257,5.0,13.0,76,0.00,,,0.55,Wunderground v.1.15,2013-04-24 18:49:00,
2013-04-24 14:52:00,44.6,37.5,30.10,WNW,299,5.0,11.0,76,0.00,,,0.55,Wunderground v.1.15,2013-04-24 18:52:00,
2013-04-24 14:54:00,44.4,37.3,30.10,NNW,337,6.0,11.0,76,0.00,,,0.55,Wunderground v.1.15,2013-04-24 18:54:00,
2013-04-24 14:55:00,44.4,37.3,30.10,NW,304,6.0,11.0,76,0.00,,,0.55,Wunderground v.1.15,2013-04-24 18:55:00,
2013-04-24 14:56:00,44.3,37.5,30.10,NW,326,6.0,11.0,77,0.00,,,0.55,Wunderground v.1.15,2013-04-24 18:56:00,
2013-04-24 14:57:00,44.1,37.3,30.10,West,264,6.0,11.0,77,0.00,,,0.56,Wunderground v.1.15,2013-04-24 18:57:00,
2013-04-24 15:00:00,43.7,37.6,30.11,NW,304,7.0,8.0,79,0.00,,,0.56,Wunderground v.1.15,2013-04-24 19:00:00,
2013-04-24 15:03:00,43.4,37.6,30.11,WNW,301,7.0,11.0,80,0.00,,,0.56,Wunderground v.1.15,2013-04-24 19:03:00,
2013-04-24 15:05:00,43.3,37.9,30.11,WNW,302,6.0,11.0,81,0.00,,,0.56,Wunderground v.1.15,2013-04-24 19:05:00,
2013-04-24 15:06:00,43.3,38.2,30.11,NNW,347,6.0,11.0,82,0.00,,,0.56,Wunderground v.1.15,2013-04-24 19:06:00,
2013-04-24 15:08:00,43.1,38.0,30.11,NW,323,5.0,11.0,82,0.00,,,0.56,Wunderground v.1.15,2013-04-24 19:08:00,
2013-04-24 15:10:00,43.1,38.3,30.11,West,271,5.0,5.0,83,0.00,,,0.56,Wunderground v.1.15,2013-04-24 19:10:00,
2013-04-24 15:12:00,43.1,38.3,30.11,West,277,4.0,8.0,83,0.00,,,0.56,Wunderground v.1.15,2013-04-24 19:12:00,
2013-04-24 15:15:00,42.8,38.0,30.12,NW,316,4.0,10.0,83,0.00,,,0.56,Wunderground v.1.15,2013-04-24 19:15:00,
2013-04-24 15:18:00,42.8,38.3,30.12,NW,305,4.0,10.0,84,0.00,,,0.56,Wunderground v.1.15,2013-04-24 19:18:00,
2013-04-24 15:19:00,42.8,38.3,30.12,NNW,333,4.0,10.0,84,0.00,,,0.56,Wunderground v.1.15,2013-04-24 19:19:00,
2013-04-24 15:21:00,42.8,38.3,30.12,NW,311,5.0,8.0,84,0.00,,,0.56,Wunderground v.1.15,2013-04-24 19:21:00,
2013-04-24 15:22:00,42.8,38.3,30.12,West,274,5.0,12.0,84,0.00,,,0.56,Wunderground v.1.15,2013-04-24 19:22:00,
2013-04-24 15:23:00,42.8,38.3,30.12,WNW,298,5.0,12.0,84,0.00,,,0.56,Wunderground v.1.15,2013-04-24 19:23:00,
2013-04-24 15:24:00,42.7,37.9,30.12,NW,322,4.0,12.0,83,0.00,,,0.56,Wunderground v.1.15,2013-04-24 19:24:00,
2013-04-24 15:25:00,42.7,37.9,30.12,WNW,299,4.0,12.0,83,0.00,,,0.56,Wunderground v.1.15,2013-04-24 19:25:00,
2013-04-24 15:27:00,42.7,37.9,30.12,West,275,5.0,12.0,83,0.00,,,0.56,Wunderground v.1.15,2013-04-24 19:27:00,
2013-04-24 15:31:00,42.8,38.0,30.14,NW,318,5.0,6.0,83,0.00,,,0.56,Wunderground v.1.15,2013-04-24 19:31:00,
2013-04-24 15:33:00,43.0,38.2,30.14,NW,312,5.0,6.0,83,0.00,,,0.56,Wunderground v.1.15,2013-04-24 19:33:00,
2013-04-24 15:34:00,43.0,38.2,30.14,WNW,285,5.0,6.0,83,0.00,,,0.56,Wunderground v.1.15,2013-04-24 19:34:00,
2013-04-24 15:36:00,43.3,38.5,30.14,WSW,256,5.0,7.0,83,0.00,,,0.56,Wunderground v.1.15,2013-04-24 19:36:00,
2013-04-24 15:38:00,43.4,38.6,30.14,WNW,299,5.0,11.0,83,0.00,,,0.56,Wunderground v.1.15,2013-04-24 19:38:00,
2013-04-24 15:41:00,43.6,38.2,30.14,NW,313,5.0,6.0,81,0.00,,,0.56,Wunderground v.1.15,2013-04-24 19:41:00,
2013-04-24 15:43:00,43.7,38.3,30.14,North,0,5.0,6.0,81,0.00,,,0.56,Wunderground v.1.15,2013-04-24 19:43:00,
2013-04-24 15:44:00,43.7,38.3,30.14,WNW,295,5.0,6.0,81,0.00,,,0.56,Wunderground v.1.15,2013-04-24 19:44:00,
2013-04-24 15:45:00,43.8,38.3,30.14,NW,318,5.0,6.0,81,0.00,,,0.56,Wunderground v.1.15,2013-04-24 19:45:00,
2013-04-24 15:47:00,43.8,38.0,30.14,WNW,287,5.0,6.0,80,0.00,,,0.56,Wunderground v.1.15,2013-04-24 19:47:00,
2013-04-24 15:48:00,43.8,38.0,30.14,NW,316,5.0,8.0,80,0.00,,,0.56,Wunderground v.1.15,2013-04-24 19:48:00,
2013-04-24 15:49:00,43.8,38.0,30.14,NW,308,5.0,8.0,80,0.00,,,0.56,Wunderground v.1.15,2013-04-24 19:49:00,
2013-04-24 15:52:00,43.7,37.3,30.14,NW,306,5.0,13.0,78,0.00,,,0.56,Wunderground v.1.15,2013-04-24 19:52:00,
2013-04-24 15:53:00,43.7,37.3,30.14,WNW,288,6.0,13.0,78,0.00,,,0.56,Wunderground v.1.15,2013-04-24 19:53:00,
2013-04-24 15:54:00,43.7,37.0,30.14,North,352,6.0,13.0,77,0.00,,,0.56,Wunderground v.1.15,2013-04-24 19:54:00,
2013-04-24 15:58:00,43.8,37.1,30.14,West,275,6.0,13.0,77,0.00,,,0.56,Wunderground v.1.15,2013-04-24 19:58:00,
2013-04-24 16:00:00,44.0,37.6,30.14,West,278,5.0,7.0,78,0.00,,,0.56,Wunderground v.1.15,2013-04-24 20:00:00,
2013-04-24 16:01:00,44.0,37.3,30.14,NW,326,5.0,7.0,77,0.00,,,0.56,Wunderground v.1.15,2013-04-24 20:01:00,
2013-04-24 16:02:00,44.1,37.3,30.14,West,281,5.0,7.0,77,0.00,,,0.56,Wunderground v.1.15,2013-04-24 20:02:00,
2013-04-24 16:04:00,44.3,37.5,30.14,WNW,291,4.0,7.0,77,0.00,,,0.56,Wunderground v.1.15,2013-04-24 20:04:00,
2013-04-24 16:07:00,44.4,37.6,30.14,WNW,296,4.0,9.0,77,0.00,,,0.56,Wunderground v.1.15,2013-04-24 20:07:00,
2013-04-24 16:08:00,44.4,37.6,30.14,NNW,330,4.0,9.0,77,0.00,,,0.56,Wunderground v.1.15,2013-04-24 20:08:00,
2013-04-24 16:11:00,44.6,37.5,30.14,WNW,291,4.0,6.0,76,0.00,,,0.56,Wunderground v.1.15,2013-04-24 20:11:00,
2013-04-24 16:13:00,44.7,37.3,30.14,WSW,244,4.0,6.0,75,0.00,,,0.56,Wunderground v.1.15,2013-04-24 20:13:00,
2013-04-24 16:14:00,44.7,37.3,30.14,West,278,4.0,6.0,75,0.00,,,0.56,Wunderground v.1.15,2013-04-24 20:14:00,
2013-04-24 16:16:00,44.8,37.0,30.14,NW,312,5.0,12.0,74,0.00,,,0.56,Wunderground v.1.15,2013-04-24 20:16:00,
2013-04-24 16:19:00,45.0,37.2,30.14,WNW,289,5.0,12.0,74,0.00,,,0.56,Wunderground v.1.15,2013-04-24 20:19:00,
2013-04-24 16:22:00,45.4,37.6,30.14,WNW,282,5.0,11.0,74,0.00,,,0.56,Wunderground v.1.15,2013-04-24 20:22:00,
2013-04-24 16:24:00,45.4,37.2,30.14,NW,308,5.0,11.0,73,0.00,,,0.56,Wunderground v.1.15,2013-04-24 20:24:00,
2013-04-24 16:25:00,45.4,36.9,30.14,WNW,285,5.0,11.0,72,0.00,,,0.56,Wunderground v.1.15,2013-04-24 20:25:00,
2013-04-24 16:26:00,45.4,36.9,30.14,NW,306,5.0,11.0,72,0.00,,,0.56,Wunderground v.1.15,2013-04-24 20:26:00,
2013-04-24 16:30:00,45.3,37.5,30.14,West,274,6.0,7.0,74,0.00,,,0.56,Wunderground v.1.15,2013-04-24 20:30:00,
2013-04-24 16:31:00,45.1,37.3,30.14,NW,309,6.0,7.0,74,0.00,,,0.56,Wunderground v.1.15,2013-04-24 20:31:00,
2013-04-24 16:32:00,45.0,37.2,30.14,West,265,6.0,7.0,74,0.00,,,0.56,Wunderground v.1.15,2013-04-24 20:32:00,
2013-04-24 16:33:00,44.8,37.4,30.14,NW,308,6.0,7.0,75,0.00,,,0.56,Wunderground v.1.15,2013-04-24 20:33:00,
2013-04-24 16:35:00,44.6,37.5,30.14,NW,320,7.0,7.0,76,0.00,,,0.57,Wunderground v.1.15,2013-04-24 20:35:00,
2013-04-24 16:37:00,44.4,38.0,30.14,West,281,6.0,7.0,78,0.00,,,0.57,Wunderground v.1.15,2013-04-24 20:37:00,
2013-04-24 16:39:00,44.3,38.2,30.14,NW,313,6.0,7.0,79,0.00,,,0.57,Wunderground v.1.15,2013-04-24 20:39:00,
2013-04-24 16:40:00,44.1,38.3,30.14,West,280,6.0,13.0,80,0.00,,,0.57,Wunderground v.1.15,2013-04-24 20:40:00,
2013-04-24 16:41:00,44.1,38.3,30.14,WNW,296,6.0,13.0,80,0.00,,,0.57,Wunderground v.1.15,2013-04-24 20:41:00,
2013-04-24 16:43:00,43.8,38.0,30.14,WSW,257,5.0,13.0,80,0.00,,,0.57,Wunderground v.1.15,2013-04-24 20:43:00,
2013-04-24 16:45:00,43.8,38.3,30.16,WNW,296,5.0,13.0,81,0.00,,,0.57,Wunderground v.1.15,2013-04-24 20:45:00,
2013-04-24 16:46:00,43.8,38.7,30.16,WNW,292,5.0,13.0,82,0.00,,,0.57,Wunderground v.1.15,2013-04-24 20:46:00,
2013-04-24 16:48:00,44.0,39.2,30.16,WNW,302,4.0,13.0,83,0.00,,,0.57,Wunderground v.1.15,2013-04-24 20:48:00,
2013-04-24 16:52:00,44.3,39.5,30.16,WNW,287,3.0,7.0,83,0.00,,,0.57,Wunderground v.1.15,2013-04-24 20:52:00,
2013-04-24 16:53:00,44.3,39.2,30.16,WNW,301,3.0,7.0,82,0.00,,,0.57,Wunderground v.1.15,2013-04-24 20:53:00,
2013-04-24 16:54:00,44.1,39.0,30.16,NW,304,3.0,7.0,82,0.00,,,0.57,Wunderground v.1.15,2013-04-24 20:54:00,
2013-04-24 16:58:00,44.1,39.0,30.16,West,277,4.0,7.0,82,0.00,,,0.57,Wunderground v.1.15,2013-04-24 20:58:00,
2013-04-24 16:59:00,44.3,39.2,30.16,WSW,257,4.0,7.0,82,0.00,,,0.57,Wunderground v.1.15,2013-04-24 20:59:00,
2013-04-24 17:00:00,44.3,39.2,30.16,WNW,295,4.0,4.0,82,0.00,,,0.57,Wunderground v.1.15,2013-04-24 21:00:00,
2013-04-24 17:01:00,44.3,39.2,30.16,WSW,257,4.0,11.0,82,0.00,,,0.57,Wunderground v.1.15,2013-04-24 21:01:00,
2013-04-24 17:03:00,44.3,38.8,30.16,West,280,4.0,11.0,81,0.00,,,0.57,Wunderground v.1.15,2013-04-24 21:03:00,
2013-04-24 17:06:00,44.3,38.8,30.16,West,270,5.0,11.0,81,0.00,,,0.57,Wunderground v.1.15,2013-04-24 21:06:00,
2013-04-24 17:07:00,44.3,38.5,30.16,WNW,284,5.0,11.0,80,0.00,,,0.57,Wunderground v.1.15,2013-04-24 21:07:00,
2013-04-24 17:11:00,44.3,37.9,30.16,NNW,328,6.0,7.0,78,0.00,,,0.57,Wunderground v.1.15,2013-04-24 21:11:00,
2013-04-24 17:12:00,44.1,37.3,30.16,West,270,6.0,7.0,77,0.00,,,0.57,Wunderground v.1.15,2013-04-24 21:12:00,
2013-04-24 17:13:00,44.3,37.9,30.16,WNW,301,6.0,7.0,78,0.00,,,0.57,Wunderground v.1.15,2013-04-24 21:13:00,
2013-04-24 17:14:00,44.3,37.9,30.16,West,277,6.0,7.0,78,0.00,,,0.57,Wunderground v.1.15,2013-04-24 21:14:00,
2013-04-24 17:17:00,44.3,37.9,30.17,NNW,333,5.0,7.0,78,0.00,,,0.57,Wunderground v.1.15,2013-04-24 21:17:00,
2013-04-24 17:20:00,44.3,37.5,30.17,West,278,5.0,6.0,77,0.00,,,0.57,Wunderground v.1.15,2013-04-24 21:20:00,
2013-04-24 17:21:00,44.3,37.2,30.17,NW,308,5.0,10.0,76,0.00,,,0.57,Wunderground v.1.15,2013-04-24 21:21:00,
2013-04-24 17:23:00,44.1,37.0,30.17,WNW,295,5.0,10.0,76,0.00,,,0.57,Wunderground v.1.15,2013-04-24 21:23:00,
2013-04-24 17:24:00,44.1,37.0,30.17,WNW,296,5.0,10.0,76,0.00,,,0.57,Wunderground v.1.15,2013-04-24 21:24:00,
2013-04-24 17:26:00,44.1,37.0,30.17,West,280,5.0,10.0,76,0.00,,,0.57,Wunderground v.1.15,2013-04-24 21:26:00,
2013-04-24 17:28:00,44.1,36.7,30.17,NW,311,5.0,10.0,75,0.00,,,0.57,Wunderground v.1.15,2013-04-24 21:28:00,
2013-04-24 17:29:00,44.1,37.0,30.17,NW,306,5.0,10.0,76,0.00,,,0.57,Wunderground v.1.15,2013-04-24 21:29:00,
2013-04-24 17:34:00,44.1,37.0,30.18,NW,312,4.0,5.0,76,0.00,,,0.57,Wunderground v.1.15,2013-04-24 21:34:00,
2013-04-24 17:36:00,44.1,36.7,30.18,West,267,3.0,5.0,75,0.00,,,0.57,Wunderground v.1.15,2013-04-24 21:36:00,
2013-04-24 17:37:00,44.1,36.7,30.18,WNW,287,3.0,5.0,75,0.00,,,0.57,Wunderground v.1.15,2013-04-24 21:37:00,
2013-04-24 17:38:00,44.1,37.0,30.18,WNW,291,3.0,5.0,76,0.00,,,0.57,Wunderground v.1.15,2013-04-24 21:38:00,
2013-04-24 17:40:00,44.1,37.0,30.18,West,281,3.0,3.0,76,0.00,,,0.57,Wunderground v.1.15,2013-04-24 21:40:00,
2013-04-24 17:43:00,44.3,36.9,30.18,NW,312,3.0,6.0,75,0.00,,,0.57,Wunderground v.1.15,2013-04-24 21:43:00,
2013-04-24 17:45:00,44.3,36.9,30.18,NW,306,3.0,6.0,75,0.00,,,0.57,Wunderground v.1.15,2013-04-24 21:45:00,
2013-04-24 17:47:00,44.4,37.0,30.18,NW,316,3.0,7.0,75,0.00,,,0.57,Wunderground v.1.15,2013-04-24 21:47:00,
2013-04-24 17:49:00,44.8,37.7,30.18,NW,304,3.0,7.0,76,0.00,,,0.57,Wunderground v.1.15,2013-04-24 21:49:00,
2013-04-24 17:50:00,45.0,37.6,30.18,WNW,294,3.0,3.0,75,0.00,,,0.57,Wunderground v.1.15,2013-04-24 21:50:00,
2013-04-24 17:52:00,45.4,37.6,30.18,NW,305,3.0,6.0,74,0.00,,,0.57,Wunderground v.1.15,2013-04-24 21:52:00,
2013-04-24 17:53:00,45.6,37.4,30.18,WSW,253,3.0,6.0,73,0.00,,,0.57,Wunderground v.1.15,2013-04-24 21:53:00,
2013-04-24 17:54:00,45.7,36.8,30.18,West,263,3.0,6.0,71,0.00,,,0.57,Wunderground v.1.15,2013-04-24 21:54:00,
2013-04-24 17:55:00,45.9,37.0,30.18,West,274,3.0,6.0,71,0.00,,,0.57,Wunderground v.1.15,2013-04-24 21:55:00,
2013-04-24 17:58:00,46.2,37.0,30.18,WSW,248,4.0,6.0,70,0.00,,,0.57,Wunderground v.1.15,2013-04-24 21:58:00,
2013-04-24 17:59:00,46.3,37.0,30.18,West,267,4.0,7.0,70,0.00,,,0.57,Wunderground v.1.15,2013-04-24 21:59:00,
2013-04-24 18:01:00,46.3,35.9,30.18,West,280,5.0,8.0,67,0.00,,,0.57,Wunderground v.1.15,2013-04-24 22:01:00,
2013-04-24 18:04:00,46.3,36.7,30.18,WSW,253,5.0,8.0,69,0.00,,,0.57,Wunderground v.1.15,2013-04-24 22:04:00,
2013-04-24 18:05:00,46.3,36.7,30.18,WSW,254,4.0,8.0,69,0.00,,,0.57,Wunderground v.1.15,2013-04-24 22:05:00,
2013-04-24 18:09:00,46.3,36.7,30.18,WSW,237,4.0,8.0,69,0.00,,,0.57,Wunderground v.1.15,2013-04-24 22:09:00,
2013-04-24 18:10:00,46.2,36.6,30.18,West,264,4.0,5.0,69,0.00,,,0.57,Wunderground v.1.15,2013-04-24 22:10:00,
2013-04-24 18:11:00,46.2,36.6,30.18,WNW,295,3.0,5.0,69,0.00,,,0.57,Wunderground v.1.15,2013-04-24 22:11:00,
2013-04-24 18:12:00,46.2,36.6,30.18,WNW,295,3.0,5.0,69,0.00,,,0.57,Wunderground v.1.15,2013-04-24 22:12:00,
2013-04-24 18:13:00,46.2,36.6,30.18,WSW,243,3.0,5.0,69,0.00,,,0.57,Wunderground v.1.15,2013-04-24 22:13:00,
2013-04-24 18:16:00,46.0,36.8,30.19,WNW,284,3.0,5.0,70,0.00,,,0.57,Wunderground v.1.15,2013-04-24 22:16:00,
2013-04-24 18:17:00,46.0,36.4,30.19,WSW,248,3.0,5.0,69,0.00,,,0.57,Wunderground v.1.15,2013-04-24 22:17:00,
2013-04-24 18:18:00,45.9,36.7,30.19,WNW,296,3.0,5.0,70,0.00,,,0.57,Wunderground v.1.15,2013-04-24 22:18:00,
2013-04-24 18:22:00,45.9,36.3,30.19,SW,230,3.0,10.0,69,0.00,,,0.57,Wunderground v.1.15,2013-04-24 22:22:00,
2013-04-24 18:23:00,45.7,36.1,30.19,West,277,3.0,10.0,69,0.00,,,0.57,Wunderground v.1.15,2013-04-24 22:23:00,
2013-04-24 18:26:00,45.7,36.1,30.19,West,260,4.0,10.0,69,0.00,,,0.57,Wunderground v.1.15,2013-04-24 22:26:00,
2013-04-24 18:27:00,45.7,36.1,30.19,WSW,256,3.0,10.0,69,0.00,,,0.57,Wunderground v.1.15,2013-04-24 22:27:00,
2013-04-24 18:28:00,45.7,36.1,30.19,West,264,3.0,10.0,69,0.00,,,0.57,Wunderground v.1.15,2013-04-24 22:28:00,
2013-04-24 18:31:00,45.7,36.1,30.19,WSW,258,2.0,2.0,69,0.00,,,0.57,Wunderground v.1.15,2013-04-24 22:31:00,
2013-04-24 18:33:00,45.7,36.5,30.19,West,281,1.0,2.0,70,0.00,,,0.57,Wunderground v.1.15,2013-04-24 22:33:00,
2013-04-24 18:35:00,45.9,36.7,30.19,West,281,1.0,2.0,70,0.00,,,0.57,Wunderground v.1.15,2013-04-24 22:35:00,
2013-04-24 18:36:00,45.9,36.7,30.19,West,281,1.0,2.0,70,0.00,,,0.57,Wunderground v.1.15,2013-04-24 22:36:00,
2013-04-24 18:38:00,45.9,37.0,30.19,WNW,282,0.0,2.0,71,0.00,,,0.57,Wunderground v.1.15,2013-04-24 22:38:00,
2013-04-24 18:41:00,45.9,36.7,30.19,WNW,284,1.0,2.0,70,0.00,,,0.57,Wunderground v.1.15,2013-04-24 22:41:00,
2013-04-24 18:42:00,45.9,36.7,30.19,WNW,284,1.0,2.0,70,0.00,,,0.57,Wunderground v.1.15,2013-04-24 22:42:00,
2013-04-24 18:43:00,45.9,36.7,30.19,WNW,284,1.0,2.0,70,0.00,,,0.57,Wunderground v.1.15,2013-04-24 22:43:00,
2013-04-24 18:46:00,46.0,37.1,30.19,WNW,287,1.0,2.0,71,0.00,,,0.57,Wunderground v.1.15,2013-04-24 22:46:00,
2013-04-24 18:48:00,46.0,37.1,30.19,WNW,291,1.0,2.0,71,0.00,,,0.57,Wunderground v.1.15,2013-04-24 22:48:00,
2013-04-24 18:52:00,46.2,37.0,30.19,West,281,1.0,1.0,70,0.00,,,0.57,Wunderground v.1.15,2013-04-24 22:52:00,
2013-04-24 18:53:00,46.2,37.0,30.19,WNW,289,1.0,1.0,70,0.00,,,0.57,Wunderground v.1.15,2013-04-24 22:53:00,
2013-04-24 18:55:00,46.2,36.6,30.19,WNW,302,1.0,1.0,69,0.00,,,0.57,Wunderground v.1.15,2013-04-24 22:55:00,
2013-04-24 18:57:00,46.2,36.6,30.19,WNW,301,1.0,2.0,69,0.00,,,0.57,Wunderground v.1.15,2013-04-24 22:57:00,
2013-04-24 18:58:00,46.2,36.6,30.19,West,277,1.0,2.0,69,0.00,,,0.57,Wunderground v.1.15,2013-04-24 22:58:00,
2013-04-24 19:00:00,46.3,36.7,30.19,West,277,1.0,1.0,69,0.00,,,0.57,Wunderground v.1.15,2013-04-24 23:00:00,
2013-04-24 19:01:00,46.3,36.7,30.19,West,277,1.0,1.0,69,0.00,,,0.57,Wunderground v.1.15,2013-04-24 23:01:00,
2013-04-24 19:02:00,46.3,36.7,30.19,West,277,1.0,1.0,69,0.00,,,0.57,Wunderground v.1.15,2013-04-24 23:02:00,
2013-04-24 19:04:00,46.3,36.7,30.19,West,265,0.0,1.0,69,0.00,,,0.57,Wunderground v.1.15,2013-04-24 23:04:00,
2013-04-24 19:06:00,46.3,36.7,30.19,West,280,0.0,1.0,69,0.00,,,0.57,Wunderground v.1.15,2013-04-24 23:06:00,
2013-04-24 19:09:00,46.3,36.3,30.19,West,261,0.0,1.0,68,0.00,,,0.57,Wunderground v.1.15,2013-04-24 23:09:00,
2013-04-24 19:10:00,46.5,36.9,30.19,West,265,0.0,5.0,69,0.00,,,0.57,Wunderground v.1.15,2013-04-24 23:10:00,
2013-04-24 19:11:00,46.5,36.5,30.19,WNW,284,1.0,5.0,68,0.00,,,0.57,Wunderground v.1.15,2013-04-24 23:11:00,
2013-04-24 19:12:00,46.5,36.5,30.19,West,271,1.0,5.0,68,0.00,,,0.57,Wunderground v.1.15,2013-04-24 23:12:00,
2013-04-24 19:15:00,46.6,36.2,30.19,WNW,291,1.0,5.0,67,0.00,,,0.57,Wunderground v.1.15,2013-04-24 23:15:00,
2013-04-24 19:18:00,46.6,36.6,30.19,WNW,289,1.0,5.0,68,0.00,,,0.57,Wunderground v.1.15,2013-04-24 23:18:00,
2013-04-24 19:19:00,46.6,36.6,30.19,WSW,251,1.0,5.0,68,0.00,,,0.57,Wunderground v.1.15,2013-04-24 23:19:00,
2013-04-24 19:21:00,46.7,36.3,30.19,WSW,251,0.0,1.0,67,0.00,,,0.57,Wunderground v.1.15,2013-04-24 23:21:00,
2013-04-24 19:23:00,46.7,36.3,30.19,WNW,285,0.0,3.0,67,0.00,,,0.57,Wunderground v.1.15,2013-04-24 23:23:00,
2013-04-24 19:25:00,46.7,35.6,30.19,WNW,288,1.0,3.0,65,0.00,,,0.57,Wunderground v.1.15,2013-04-24 23:25:00,
2013-04-24 19:26:00,46.7,35.6,30.19,WNW,301,1.0,3.0,65,0.00,,,0.57,Wunderground v.1.15,2013-04-24 23:26:00,
2013-04-24 19:29:00,46.6,35.5,30.19,NW,325,1.0,3.0,65,0.00,,,0.57,Wunderground v.1.15,2013-04-24 23:29:00,
2013-04-24 19:30:00,46.6,35.5,30.20,NW,325,1.0,1.0,65,0.00,,,0.57,Wunderground v.1.15,2013-04-24 23:30:00,
2013-04-24 19:31:00,46.6,35.1,30.20,NW,325,1.0,1.0,64,0.00,,,0.57,Wunderground v.1.15,2013-04-24 23:31:00,
2013-04-24 19:35:00,46.5,35.0,30.20,NNW,328,2.0,6.0,64,0.00,,,0.57,Wunderground v.1.15,2013-04-24 23:35:00,
2013-04-24 19:36:00,46.5,35.0,30.20,NW,320,2.0,6.0,64,0.00,,,0.57,Wunderground v.1.15,2013-04-24 23:36:00,
2013-04-24 19:38:00,46.5,35.0,30.20,WNW,289,2.0,6.0,64,0.00,,,0.57,Wunderground v.1.15,2013-04-24 23:38:00,
2013-04-24 19:39:00,46.5,35.0,30.20,WNW,301,2.0,6.0,64,0.00,,,0.57,Wunderground v.1.15,2013-04-24 23:39:00,
2013-04-24 19:40:00,46.5,35.0,30.20,WNW,282,2.0,2.0,64,0.00,,,0.57,Wunderground v.1.15,2013-04-24 23:40:00,
2013-04-24 19:42:00,46.5,34.6,30.20,NNE,31,2.0,2.0,63,0.00,,,0.57,Wunderground v.1.15,2013-04-24 23:42:00,
2013-04-24 19:44:00,46.6,33.9,30.20,WNW,301,2.0,6.0,61,0.00,,,0.57,Wunderground v.1.15,2013-04-24 23:44:00,
2013-04-24 19:46:00,46.6,33.9,30.20,WSW,258,2.0,6.0,61,0.00,,,0.57,Wunderground v.1.15,2013-04-24 23:46:00,
2013-04-24 19:48:00,46.6,34.3,30.20,NW,326,3.0,6.0,62,0.00,,,0.57,Wunderground v.1.15,2013-04-24 23:48:00,
2013-04-24 19:49:00,46.6,33.9,30.20,WNW,296,3.0,6.0,61,0.00,,,0.57,Wunderground v.1.15,2013-04-24 23:49:00,
2013-04-24 19:51:00,46.6,33.9,30.20,West,268,3.0,8.0,61,0.00,,,0.57,Wunderground v.1.15,2013-04-24 23:51:00,
2013-04-24 19:52:00,46.6,33.9,30.20,NW,316,3.0,8.0,61,0.00,,,0.57,Wunderground v.1.15,2013-04-24 23:52:00,
2013-04-24 19:55:00,46.5,34.2,30.20,NW,309,3.0,8.0,62,0.00,,,0.57,Wunderground v.1.15,2013-04-24 23:55:00,
2013-04-24 19:58:00,46.5,33.8,30.20,NW,306,3.0,8.0,61,0.00,,,0.57,Wunderground v.1.15,2013-04-24 23:58:00,
2013-04-24 19:59:00,46.3,33.6,30.20,West,261,3.0,8.0,61,0.00,,,0.57,Wunderground v.1.15,2013-04-24 23:59:00,
2013-04-24 20:00:00,46.3,34.0,30.20,WNW,282,3.0,3.0,62,0.00,,,0.57,Wunderground v.1.15,2013-04-25 00:00:00,
2013-04-24 20:01:00,46.3,34.0,30.20,NW,308,3.0,3.0,62,0.00,,,0.57,Wunderground v.1.15,2013-04-25 00:01:00,
2013-04-24 20:04:00,46.2,33.9,30.20,WNW,289,3.0,3.0,62,0.00,,,0.57,Wunderground v.1.15,2013-04-25 00:04:00,
2013-04-24 20:05:00,46.2,33.9,30.20,WNW,301,3.0,3.0,62,0.00,,,0.57,Wunderground v.1.15,2013-04-25 00:05:00,
2013-04-24 20:06:00,46.2,33.9,30.20,WNW,287,3.0,3.0,62,0.00,,,0.57,Wunderground v.1.15,2013-04-25 00:06:00,
2013-04-24 20:08:00,46.2,33.9,30.20,NW,309,2.0,3.0,62,0.00,,,0.57,Wunderground v.1.15,2013-04-25 00:08:00,
2013-04-24 20:11:00,46.0,34.1,30.20,NW,326,3.0,3.0,63,0.00,,,0.57,Wunderground v.1.15,2013-04-25 00:11:00,
2013-04-24 20:12:00,45.9,34.0,30.20,NW,309,2.0,3.0,63,0.00,,,0.57,Wunderground v.1.15,2013-04-25 00:12:00,
2013-04-24 20:13:00,45.9,34.0,30.20,NW,304,2.0,5.0,63,0.00,,,0.57,Wunderground v.1.15,2013-04-25 00:13:00,
2013-04-24 20:16:00,45.7,33.8,30.21,WNW,292,2.0,5.0,63,0.00,,,0.57,Wunderground v.1.15,2013-04-25 00:16:00,
2013-04-24 20:17:00,45.7,34.2,30.21,NW,316,2.0,5.0,64,0.00,,,0.57,Wunderground v.1.15,2013-04-25 00:17:00,
2013-04-24 20:20:00,45.7,34.2,30.21,NW,311,1.0,1.0,64,0.00,,,0.57,Wunderground v.1.15,2013-04-25 00:20:00,
2013-04-24 20:22:00,45.6,34.5,30.21,WNW,288,2.0,4.0,65,0.00,,,0.57,Wunderground v.1.15,2013-04-25 00:22:00,
2013-04-24 20:23:00,45.4,34.3,30.21,WNW,288,1.0,4.0,65,0.00,,,0.57,Wunderground v.1.15,2013-04-25 00:23:00,
2013-04-24 20:25:00,45.4,34.3,30.21,West,277,1.0,4.0,65,0.00,,,0.57,Wunderground v.1.15,2013-04-25 00:25:00,
2013-04-24 20:26:00,45.3,34.2,30.21,West,277,1.0,4.0,65,0.00,,,0.57,Wunderground v.1.15,2013-04-25 00:26:00,
2013-04-24 20:27:00,45.3,34.6,30.21,West,280,1.0,4.0,66,0.00,,,0.57,Wunderground v.1.15,2013-04-25 00:27:00,
2013-04-24 20:28:00,45.1,34.4,30.21,West,280,1.0,4.0,66,0.00,,,0.57,Wunderground v.1.15,2013-04-25 00:28:00,
2013-04-24 20:32:00,45.0,34.3,30.22,West,280,0.0,0.0,66,0.00,,,0.57,Wunderground v.1.15,2013-04-25 00:32:00,
2013-04-24 20:33:00,45.0,34.3,30.22,West,280,0.0,0.0,66,0.00,,,0.57,Wunderground v.1.15,2013-04-25 00:33:00,
2013-04-24 20:35:00,44.7,34.4,30.22,WNW,302,0.0,0.0,67,0.00,,,0.57,Wunderground v.1.15,2013-04-25 00:35:00,
2013-04-24 20:36:00,44.7,34.0,30.22,NW,309,0.0,0.0,66,0.00,,,0.57,Wunderground v.1.15,2013-04-25 00:36:00,
2013-04-24 20:38:00,44.6,34.3,30.22,NW,309,0.0,0.0,67,0.00,,,0.57,Wunderground v.1.15,2013-04-25 00:38:00,
2013-04-24 20:40:00,44.4,34.1,30.22,NW,309,0.0,0.0,67,0.00,,,0.57,Wunderground v.1.15,2013-04-25 00:40:00,
2013-04-24 20:41:00,44.4,34.1,30.22,NW,309,0.0,0.0,67,0.00,,,0.57,Wunderground v.1.15,2013-04-25 00:41:00,
2013-04-24 20:42:00,44.3,34.0,30.22,NW,309,0.0,0.0,67,0.00,,,0.57,Wunderground v.1.15,2013-04-25 00:42:00,
2013-04-24 20:43:00,44.3,34.0,30.22,West,281,0.0,0.0,67,0.00,,,0.57,Wunderground v.1.15,2013-04-25 00:43:00,
2013-04-24 20:47:00,44.1,34.2,30.22,West,271,0.0,1.0,68,0.00,,,0.57,Wunderground v.1.15,2013-04-25 00:47:00,
2013-04-24 20:48:00,44.1,34.2,30.22,West,271,0.0,1.0,68,0.00,,,0.57,Wunderground v.1.15,2013-04-25 00:48:00,
2013-04-24 20:49:00,44.1,34.2,30.22,West,271,0.0,1.0,68,0.00,,,0.57,Wunderground v.1.15,2013-04-25 00:49:00,
2013-04-24 20:50:00,43.8,33.9,30.22,West,271,0.0,0.0,68,0.00,,,0.57,Wunderground v.1.15,2013-04-25 00:50:00,
2013-04-24 20:52:00,43.7,33.8,30.22,West,272,0.0,0.0,68,0.00,,,0.57,Wunderground v.1.15,2013-04-25 00:52:00,
2013-04-24 20:54:00,43.6,33.7,30.22,West,272,0.0,0.0,68,0.00,,,0.57,Wunderground v.1.15,2013-04-25 00:54:00,
2013-04-24 20:55:00,43.6,34.1,30.22,West,272,0.0,0.0,69,0.00,,,0.57,Wunderground v.1.15,2013-04-25 00:55:00,
2013-04-24 20:57:00,43.4,33.9,30.22,West,272,0.0,0.0,69,0.00,,,0.57,Wunderground v.1.15,2013-04-25 00:57:00,
2013-04-24 21:00:00,43.3,33.8,30.23,West,274,0.0,0.0,69,0.00,,,0.57,Wunderground v.1.15,2013-04-25 01:00:00,
2013-04-24 21:01:00,43.1,34.0,30.23,West,274,0.0,0.0,70,0.00,,,0.57,Wunderground v.1.15,2013-04-25 01:01:00,
2013-04-24 21:04:00,43.0,33.9,30.23,West,274,0.0,0.0,70,0.00,,,0.57,Wunderground v.1.15,2013-04-25 01:04:00,
2013-04-24 21:07:00,42.8,34.0,30.23,West,274,0.0,0.0,71,0.00,,,0.57,Wunderground v.1.15,2013-04-25 01:07:00,
2013-04-24 21:08:00,42.7,33.9,30.23,West,274,0.0,0.0,71,0.00,,,0.57,Wunderground v.1.15,2013-04-25 01:08:00,
2013-04-24 21:09:00,42.7,33.9,30.23,West,274,0.0,0.0,71,0.00,,,0.57,Wunderground v.1.15,2013-04-25 01:09:00,
2013-04-24 21:11:00,42.6,33.9,30.23,West,274,0.0,0.0,71,0.00,,,0.57,Wunderground v.1.15,2013-04-25 01:11:00,
2013-04-24 21:13:00,42.4,33.7,30.23,West,274,0.0,0.0,71,0.00,,,0.57,Wunderground v.1.15,2013-04-25 01:13:00,
2013-04-24 21:15:00,42.4,33.7,30.24,West,274,0.0,0.0,71,0.00,,,0.57,Wunderground v.1.15,2013-04-25 01:15:00,
2013-04-24 21:17:00,42.3,33.6,30.24,West,274,0.0,0.0,71,0.00,,,0.57,Wunderground v.1.15,2013-04-25 01:17:00,
2013-04-24 21:18:00,42.1,33.4,30.24,West,274,0.0,0.0,71,0.00,,,0.57,Wunderground v.1.15,2013-04-25 01:18:00,
2013-04-24 21:20:00,42.0,33.6,30.24,West,274,0.0,0.0,72,0.00,,,0.57,Wunderground v.1.15,2013-04-25 01:20:00,
2013-04-24 21:23:00,41.7,33.7,30.24,West,274,0.0,0.0,73,0.00,,,0.57,Wunderground v.1.15,2013-04-25 01:23:00,
2013-04-24 21:24:00,41.6,33.6,30.24,West,274,0.0,0.0,73,0.00,,,0.57,Wunderground v.1.15,2013-04-25 01:24:00,
2013-04-24 21:29:00,41.3,33.6,30.24,West,274,0.0,0.0,74,0.00,,,0.57,Wunderground v.1.15,2013-04-25 01:29:00,
2013-04-24 21:30:00,41.1,33.4,30.25,West,274,0.0,0.0,74,0.00,,,0.57,Wunderground v.1.15,2013-04-25 01:30:00,
2013-04-24 21:31:00,41.1,33.8,30.25,West,274,0.0,0.0,75,0.00,,,0.57,Wunderground v.1.15,2013-04-25 01:31:00,
2013-04-24 21:32:00,41.0,33.7,30.25,West,274,0.0,0.0,75,0.00,,,0.57,Wunderground v.1.15,2013-04-25 01:32:00,
2013-04-24 21:35:00,40.8,33.5,30.25,West,274,0.0,0.0,75,0.00,,,0.57,Wunderground v.1.15,2013-04-25 01:35:00,
2013-04-24 21:36:00,40.8,33.5,30.25,West,274,0.0,0.0,75,0.00,,,0.57,Wunderground v.1.15,2013-04-25 01:36:00,
2013-04-24 21:39:00,40.6,33.3,30.25,West,274,0.0,0.0,75,0.00,,,0.57,Wunderground v.1.15,2013-04-25 01:39:00,
2013-04-24 21:41:00,40.6,33.6,30.25,West,274,0.0,0.0,76,0.00,,,0.57,Wunderground v.1.15,2013-04-25 01:41:00,
2013-04-24 21:42:00,40.4,33.4,30.25,West,274,0.0,0.0,76,0.00,,,0.57,Wunderground v.1.15,2013-04-25 01:42:00,
2013-04-24 21:45:00,40.3,33.3,30.25,West,274,0.0,0.0,76,0.00,,,0.57,Wunderground v.1.15,2013-04-25 01:45:00,
2013-04-24 21:46:00,40.3,33.3,30.25,West,274,0.0,0.0,76,0.00,,,0.57,Wunderground v.1.15,2013-04-25 01:46:00,
2013-04-24 21:47:00,40.3,33.3,30.25,West,274,0.0,0.0,76,0.00,,,0.57,Wunderground v.1.15,2013-04-25 01:47:00,
2013-04-24 21:48:00,40.3,33.3,30.25,West,274,0.0,0.0,76,0.00,,,0.57,Wunderground v.1.15,2013-04-25 01:48:00,
2013-04-24 21:50:00,40.1,33.1,30.25,West,274,0.0,0.0,76,0.00,,,0.57,Wunderground v.1.15,2013-04-25 01:50:00,
2013-04-24 21:53:00,40.0,33.0,30.25,West,274,0.0,0.0,76,0.00,,,0.57,Wunderground v.1.15,2013-04-25 01:53:00,
2013-04-24 21:54:00,40.0,33.4,30.25,West,274,0.0,0.0,77,0.00,,,0.57,Wunderground v.1.15,2013-04-25 01:54:00,
2013-04-24 21:55:00,39.8,33.2,30.25,West,274,0.0,0.0,77,0.00,,,0.57,Wunderground v.1.15,2013-04-25 01:55:00,
2013-04-24 21:56:00,39.8,33.2,30.25,West,274,0.0,0.0,77,0.00,,,0.57,Wunderground v.1.15,2013-04-25 01:56:00,
2013-04-24 22:00:00,39.6,33.3,30.25,West,272,0.0,0.0,78,0.00,,,0.57,Wunderground v.1.15,2013-04-25 02:00:00,
2013-04-24 22:01:00,39.6,33.3,30.25,West,274,0.0,0.0,78,0.00,,,0.57,Wunderground v.1.15,2013-04-25 02:01:00,
2013-04-24 22:04:00,39.4,33.4,30.25,West,274,0.0,0.0,79,0.00,,,0.57,Wunderground v.1.15,2013-04-25 02:04:00,
2013-04-24 22:09:00,39.1,33.5,30.25,West,274,0.0,0.0,80,0.00,,,0.57,Wunderground v.1.15,2013-04-25 02:09:00,
2013-04-24 22:11:00,39.0,33.4,30.25,West,274,0.0,0.0,80,0.00,,,0.57,Wunderground v.1.15,2013-04-25 02:11:00,
2013-04-24 22:13:00,38.8,33.2,30.25,West,274,0.0,0.0,80,0.00,,,0.57,Wunderground v.1.15,2013-04-25 02:13:00,
2013-04-24 22:16:00,38.7,33.4,30.26,West,274,0.0,0.0,81,0.00,,,0.57,Wunderground v.1.15,2013-04-25 02:16:00,
2013-04-24 22:17:00,38.5,33.2,30.26,West,274,0.0,0.0,81,0.00,,,0.57,Wunderground v.1.15,2013-04-25 02:17:00,
2013-04-24 22:18:00,38.4,33.1,30.26,West,274,0.0,0.0,81,0.00,,,0.57,Wunderground v.1.15,2013-04-25 02:18:00,
2013-04-24 22:24:00,38.1,33.4,30.26,West,274,0.0,0.0,83,0.00,,,0.57,Wunderground v.1.15,2013-04-25 02:24:00,
2013-04-24 22:25:00,38.0,33.3,30.26,West,274,0.0,0.0,83,0.00,,,0.57,Wunderground v.1.15,2013-04-25 02:25:00,
2013-04-24 22:29:00,37.8,33.1,30.26,West,274,0.0,0.0,83,0.00,,,0.57,Wunderground v.1.15,2013-04-25 02:29:00,
2013-04-24 22:30:00,37.8,33.1,30.26,West,274,0.0,0.0,83,0.00,,,0.57,Wunderground v.1.15,2013-04-25 02:30:00,
2013-04-24 22:33:00,37.7,33.3,30.26,West,274,0.0,0.0,84,0.00,,,0.57,Wunderground v.1.15,2013-04-25 02:33:00,
2013-04-24 22:34:00,37.7,33.3,30.26,West,274,0.0,0.0,84,0.00,,,0.57,Wunderground v.1.15,2013-04-25 02:34:00,
2013-04-24 22:36:00,37.5,33.1,30.26,West,274,0.0,0.0,84,0.00,,,0.57,Wunderground v.1.15,2013-04-25 02:36:00,
2013-04-24 22:40:00,37.4,33.0,30.26,West,274,0.0,0.0,84,0.00,,,0.57,Wunderground v.1.15,2013-04-25 02:40:00,
2013-04-24 22:42:00,37.3,32.9,30.26,West,274,0.0,0.0,84,0.00,,,0.57,Wunderground v.1.15,2013-04-25 02:42:00,
2013-04-24 22:43:00,37.3,32.9,30.26,West,274,0.0,0.0,84,0.00,,,0.57,Wunderground v.1.15,2013-04-25 02:43:00,
2013-04-24 22:45:00,37.1,32.7,30.27,West,274,0.0,0.0,84,0.00,,,0.57,Wunderground v.1.15,2013-04-25 02:45:00,
2013-04-24 22:47:00,37.0,32.6,30.27,West,274,0.0,0.0,84,0.00,,,0.57,Wunderground v.1.15,2013-04-25 02:47:00,
2013-04-24 22:48:00,37.0,32.6,30.27,West,274,0.0,0.0,84,0.00,,,0.57,Wunderground v.1.15,2013-04-25 02:48:00,
2013-04-24 22:49:00,37.0,32.9,30.27,West,274,0.0,0.0,85,0.00,,,0.57,Wunderground v.1.15,2013-04-25 02:49:00,
2013-04-24 22:50:00,36.8,32.7,30.27,West,274,0.0,0.0,85,0.00,,,0.57,Wunderground v.1.15,2013-04-25 02:50:00,
2013-04-24 22:54:00,36.7,32.6,30.27,West,274,0.0,0.0,85,0.00,,,0.57,Wunderground v.1.15,2013-04-25 02:54:00,
2013-04-24 22:55:00,36.7,32.6,30.27,West,274,0.0,0.0,85,0.00,,,0.57,Wunderground v.1.15,2013-04-25 02:55:00,
2013-04-24 22:56:00,36.7,32.6,30.27,West,274,0.0,0.0,85,0.00,,,0.57,Wunderground v.1.15,2013-04-25 02:56:00,
2013-04-24 22:57:00,36.5,32.7,30.27,West,274,0.0,0.0,86,0.00,,,0.57,Wunderground v.1.15,2013-04-25 02:57:00,
2013-04-24 23:00:00,36.4,32.6,30.27,West,274,0.0,0.0,86,0.00,,,0.57,Wunderground v.1.15,2013-04-25 03:00:00,
2013-04-24 23:02:00,36.4,32.6,30.27,West,274,0.0,0.0,86,0.00,,,0.57,Wunderground v.1.15,2013-04-25 03:02:00,
2013-04-24 23:03:00,36.4,32.6,30.27,West,274,0.0,0.0,86,0.00,,,0.57,Wunderground v.1.15,2013-04-25 03:03:00,
2013-04-24 23:05:00,36.3,32.5,30.27,West,274,0.0,0.0,86,0.00,,,0.57,Wunderground v.1.15,2013-04-25 03:05:00,
2013-04-24 23:08:00,36.1,32.3,30.27,West,274,0.0,0.0,86,0.00,,,0.57,Wunderground v.1.15,2013-04-25 03:08:00,
2013-04-24 23:09:00,36.1,32.3,30.27,West,274,0.0,0.0,86,0.00,,,0.57,Wunderground v.1.15,2013-04-25 03:09:00,
2013-04-24 23:11:00,36.1,32.3,30.27,West,274,0.0,0.0,86,0.00,,,0.57,Wunderground v.1.15,2013-04-25 03:11:00,
2013-04-24 23:15:00,36.0,32.5,30.27,West,274,0.0,0.0,87,0.00,,,0.57,Wunderground v.1.15,2013-04-25 03:15:00,
2013-04-24 23:16:00,36.0,32.5,30.27,West,274,0.0,0.0,87,0.00,,,0.57,Wunderground v.1.15,2013-04-25 03:16:00,
2013-04-24 23:20:00,35.8,32.3,30.27,West,274,0.0,0.0,87,0.00,,,0.57,Wunderground v.1.15,2013-04-25 03:20:00,
2013-04-24 23:21:00,35.8,32.3,30.27,West,274,0.0,0.0,87,0.00,,,0.57,Wunderground v.1.15,2013-04-25 03:21:00,
2013-04-24 23:23:00,35.7,32.2,30.27,West,274,0.0,0.0,87,0.00,,,0.57,Wunderground v.1.15,2013-04-25 03:23:00,
2013-04-24 23:24:00,35.7,32.2,30.27,West,274,0.0,0.0,87,0.00,,,0.57,Wunderground v.1.15,2013-04-25 03:24:00,
2013-04-24 23:28:00,35.5,32.0,30.27,West,274,0.0,0.0,87,0.00,,,0.57,Wunderground v.1.15,2013-04-25 03:28:00,
2013-04-24 23:29:00,35.5,32.3,30.27,West,274,0.0,0.0,88,0.00,,,0.57,Wunderground v.1.15,2013-04-25 03:29:00,
2013-04-24 23:30:00,35.5,32.3,30.27,West,274,0.0,0.0,88,0.00,,,0.57,Wunderground v.1.15,2013-04-25 03:30:00,
2013-04-24 23:33:00,35.4,32.2,30.27,West,274,0.0,0.0,88,0.00,,,0.57,Wunderground v.1.15,2013-04-25 03:33:00,
2013-04-24 23:34:00,35.4,32.2,30.27,West,274,0.0,0.0,88,0.00,,,0.57,Wunderground v.1.15,2013-04-25 03:34:00,
2013-04-24 23:37:00,35.4,32.2,30.27,West,274,0.0,0.0,88,0.00,,,0.57,Wunderground v.1.15,2013-04-25 03:37:00,
2013-04-24 23:38:00,35.4,32.2,30.27,West,274,0.0,0.0,88,0.00,,,0.57,Wunderground v.1.15,2013-04-25 03:38:00,
2013-04-24 23:39:00,35.2,32.0,30.27,West,274,0.0,0.0,88,0.00,,,0.57,Wunderground v.1.15,2013-04-25 03:39:00,
2013-04-24 23:40:00,35.2,32.0,30.27,West,274,0.0,0.0,88,0.00,,,0.57,Wunderground v.1.15,2013-04-25 03:40:00,
2013-04-24 23:45:00,35.1,31.9,30.28,West,274,0.0,0.0,88,0.00,,,0.57,Wunderground v.1.15,2013-04-25 03:45:00,
2013-04-24 23:46:00,35.1,31.9,30.28,West,274,0.0,0.0,88,0.00,,,0.57,Wunderground v.1.15,2013-04-25 03:46:00,
2013-04-24 23:47:00,35.1,31.9,30.28,West,274,0.0,0.0,88,0.00,,,0.57,Wunderground v.1.15,2013-04-25 03:47:00,
2013-04-24 23:48:00,35.1,31.9,30.28,West,274,0.0,0.0,88,0.00,,,0.57,Wunderground v.1.15,2013-04-25 03:48:00,
2013-04-24 23:51:00,35.1,31.9,30.28,West,274,0.0,0.0,88,0.00,,,0.57,Wunderground v.1.15,2013-04-25 03:51:00,
2013-04-24 23:52:00,35.1,31.9,30.28,West,274,0.0,0.0,88,0.00,,,0.57,Wunderground v.1.15,2013-04-25 03:52:00,
2013-04-24 23:53:00,34.9,31.7,30.28,West,274,0.0,0.0,88,0.00,,,0.57,Wunderground v.1.15,2013-04-25 03:53:00,
2013-04-24 23:54:00,34.9,32.0,30.28,West,274,0.0,0.0,89,0.00,,,0.57,Wunderground v.1.15,2013-04-25 03:54:00,
2013-04-24 23:56:00,34.9,32.0,30.28,West,274,0.0,0.0,89,0.00,,,0.57,Wunderground v.1.15,2013-04-25 03:56:00,
2013-04-24 23:59:00,34.9,32.0,30.28,West,274,0.0,0.0,89,0.00,,,0.57,Wunderground v.1.15,2013-04-25 03:59:00,